Observation data for Coyanosa on 12/08/2018      Previous  Date       Current Mesonet Observations  Soil Data  Daily Summary Page  Observations in Plain Language
KCO1 080600Z 08005KT 03/03 A3024 RMK A01 T00330031  RH  099%=      5-min Rain = 0
KCO1 080601Z 08004KT 03/03 A3024 RMK A01 T00330031  RH  099%=      5-min Rain = 0
KCO1 080602Z 08005KT 03/03 A3024 RMK A01 T00330031  RH  099%=      5-min Rain = 0
KCO1 080603Z 08005KT 03/03 A3024 RMK A01 T00330031  RH  099%=      5-min Rain = 0
KCO1 080604Z 08005KT 03/03 A3024 RMK A01 T00330031  RH  099%=      5-min Rain = 0
KCO1 080605Z 08004KT 03/03 A3024 RMK A01 T00330031  RH  099%=      5-min Rain = 0
KCO1 080606Z 08006KT 03/03 A3024 RMK A01 T00330031  RH  099%=      5-min Rain = 0
KCO1 080607Z 08005KT 03/03 A3024 RMK A01 T00330031  RH  099%=      5-min Rain = 0
KCO1 080608Z 07004KT 03/03 A3024 RMK A01 T00330031  RH  099%=      5-min Rain = 0
KCO1 080609Z 08003KT 03/03 A3024 RMK A01 T00330031  RH  099%=      5-min Rain = 0
KCO1 080610Z 09004KT 03/03 A3024 RMK A01 T00330031  RH  099%=      5-min Rain = 0
KCO1 080611Z 09005KT 03/03 A3024 RMK A01 T00330031  RH  099%=      5-min Rain = 0
KCO1 080612Z 10004KT 03/03 A3024 RMK A01 T00330031  RH  099%=      5-min Rain = 0
KCO1 080613Z 09003KT 03/03 A3024 RMK A01 T00330031  RH  099%=      5-min Rain = 0
KCO1 080614Z 09003KT 03/03 A3024 RMK A01 T00330031  RH  098%=      5-min Rain = 0
KCO1 080615Z 08003KT 03/03 A3025 RMK A01 T00330031  RH  099%=      5-min Rain = 0
KCO1 080616Z 08002KT 03/03 A3025 RMK A01 T00330030  RH  098%=      5-min Rain = 0
KCO1 080617Z 06003KT 03/03 A3025 RMK A01 T00330031  RH  098%=      5-min Rain = 0
KCO1 080618Z 08002KT 03/03 A3025 RMK A01 T00330030  RH  098%=      5-min Rain = 0
KCO1 080619Z 06002KT 03/03 A3025 RMK A01 T00330030  RH  098%=      5-min Rain = 0
KCO1 080620Z 06002KT 03/03 A3025 RMK A01 T00330031  RH  098%=      5-min Rain = 0
KCO1 080621Z 06002KT 03/03 A3025 RMK A01 T00330030  RH  098%=      5-min Rain = 0
KCO1 080622Z 06003KT 03/03 A3024 RMK A01 T00330030  RH  098%=      5-min Rain = 0
KCO1 080623Z 07002KT 03/03 A3024 RMK A01 T00330031  RH  098%=      5-min Rain = 0
KCO1 080624Z 06002KT 03/03 A3024 RMK A01 T00330031  RH  098%=      5-min Rain = 0
KCO1 080625Z 05002KT 03/03 A3024 RMK A01 T00330031  RH  098%=      5-min Rain = 0
KCO1 080626Z 05002KT 03/03 A3024 RMK A01 T00330031  RH  098%=      5-min Rain = 0
KCO1 080627Z 06003KT 03/03 A3024 RMK A01 T00330031  RH  098%=      5-min Rain = 0
KCO1 080628Z 05003KT 03/03 A3024 RMK A01 T00340031  RH  098%=      5-min Rain = 0
KCO1 080629Z 04003KT 03/03 A3024 RMK A01 T00340031  RH  098%=      5-min Rain = 0
KCO1 080630Z 04004KT 03/03 A3024 RMK A01 T00340031  RH  098%=      5-min Rain = 0
KCO1 080631Z 04007KT 03/03 A3024 RMK A01 T00340031  RH  098%=      5-min Rain = 0.01
KCO1 080632Z 04006KT 03/03 A3024 RMK A01 T00340031  RH  098%=      5-min Rain = 0
KCO1 080633Z 05007KT 03/03 A3024 RMK A01 T00330031  RH  098%=      5-min Rain = 0
KCO1 080634Z 05007KT 03/03 A3024 RMK A01 T00330030  RH  098%=      5-min Rain = 0
KCO1 080635Z 05006KT 03/03 A3024 RMK A01 T00320029  RH  098%=      5-min Rain = 0
KCO1 080636Z 05006KT 03/03 A3024 RMK A01 T00320029  RH  098%=      5-min Rain = 0
KCO1 080637Z 05006KT 03/03 A3024 RMK A01 T00320029  RH  098%=      5-min Rain = 0
KCO1 080638Z 06006KT 03/03 A3024 RMK A01 T00310028  RH  098%=      5-min Rain = 0
KCO1 080639Z 05006KT 03/03 A3024 RMK A01 T00310029  RH  098%=      5-min Rain = 0
KCO1 080640Z 05006KT 03/03 A3024 RMK A01 T00310029  RH  098%=      5-min Rain = 0
KCO1 080641Z 05005KT 03/03 A3024 RMK A01 T00310029  RH  098%=      5-min Rain = 0
KCO1 080642Z 05005KT 03/03 A3024 RMK A01 T00320029  RH  098%=      5-min Rain = 0
KCO1 080643Z 05006KT 03/03 A3023 RMK A01 T00310029  RH  098%=      5-min Rain = 0
KCO1 080644Z 05005KT 03/03 A3023 RMK A01 T00310029  RH  098%=      5-min Rain = 0
KCO1 080645Z 05006KT 03/03 A3023 RMK A01 T00310029  RH  098%=      5-min Rain = 0.01
KCO1 080646Z 05005KT 03/03 A3023 RMK A01 T00310029  RH  098%=      5-min Rain = 0
KCO1 080647Z 06006KT 03/03 A3023 RMK A01 T00310029  RH  098%=      5-min Rain = 0
KCO1 080648Z 05006KT 03/03 A3023 RMK A01 T00310028  RH  098%=      5-min Rain = 0
KCO1 080649Z 05004KT 03/03 A3023 RMK A01 T00310028  RH  098%=      5-min Rain = 0
KCO1 080650Z 05004KT 03/03 A3024 RMK A01 T00310028  RH  098%=      5-min Rain = 0.01
KCO1 080651Z 06004KT 03/03 A3024 RMK A01 T00310028  RH  098%=      5-min Rain = 0
KCO1 080652Z 06003KT 03/03 A3024 RMK A01 T00310028  RH  098%=      5-min Rain = 0
KCO1 080653Z 06003KT 03/03 A3024 RMK A01 T00310028  RH  098%=      5-min Rain = 0.01
KCO1 080654Z 06003KT 03/03 A3024 RMK A01 T00310028  RH  098%=      5-min Rain = 0
KCO1 080655Z 05005KT 03/03 A3024 RMK A01 T00310028  RH  098%=      5-min Rain = 0.01
KCO1 080656Z 05004KT 03/03 A3024 RMK A01 T00310028  RH  098%=      5-min Rain = 0
KCO1 080657Z 04004KT 03/03 A3024 RMK A01 T00310028  RH  098%=      5-min Rain = 0.01
KCO1 080658Z 04003KT 03/03 A3024 RMK A01 T00310028  RH  098%=      5-min Rain = 0
KCO1 080659Z 04003KT 03/03 A3024 RMK A01 T00310028  RH  098%=      5-min Rain = 0
KCO1 080700Z 04005KT 03/03 A3024 RMK A01 T00300028  RH  098%=      5-min Rain = 0.01
KCO1 080701Z 04004KT 03/03 A3024 RMK A01 T00300027  RH  098%=      5-min Rain = 0
KCO1 080702Z 04004KT 03/03 A3024 RMK A01 T00300027  RH  098%=      5-min Rain = 0
KCO1 080703Z 04005KT 03/03 A3024 RMK A01 T00300027  RH  098%=      5-min Rain = 0.01
KCO1 080704Z 04004KT 03/03 A3024 RMK A01 T00300027  RH  098%=      5-min Rain = 0
KCO1 080705Z 05004KT 03/03 A3024 RMK A01 T00300027  RH  098%=      5-min Rain = 0
KCO1 080706Z 05004KT 03/03 A3024 RMK A01 T00300027  RH  098%=      5-min Rain = 0
KCO1 080707Z 04004KT 03/03 A3024 RMK A01 T00300027  RH  098%=      5-min Rain = 0
KCO1 080708Z 05004KT 03/03 A3024 RMK A01 T00300027  RH  098%=      5-min Rain = 0
KCO1 080709Z 04004KT 03/03 A3024 RMK A01 T00300027  RH  098%=      5-min Rain = 0
KCO1 080710Z 05003KT 03/03 A3024 RMK A01 T00300027  RH  098%=      5-min Rain = 0
KCO1 080711Z 04003KT 03/03 A3024 RMK A01 T00300027  RH  098%=      5-min Rain = 0
KCO1 080712Z 04003KT 03/03 A3024 RMK A01 T00300027  RH  098%=      5-min Rain = 0.01
KCO1 080713Z 05002KT 03/03 A3024 RMK A01 T00290026  RH  098%=      5-min Rain = 0
KCO1 080714Z 05002KT 03/03 A3024 RMK A01 T00290026  RH  098%=      5-min Rain = 0
KCO1 080715Z 05004KT 03/03 A3024 RMK A01 T00300027  RH  098%=      5-min Rain = 0
KCO1 080716Z 04004KT 03/03 A3024 RMK A01 T00300027  RH  098%=      5-min Rain = 0.01
KCO1 080717Z 03003KT 03/03 A3024 RMK A01 T00300027  RH  098%=      5-min Rain = 0
KCO1 080718Z 03003KT 03/03 A3024 RMK A01 T00300027  RH  098%=      5-min Rain = 0.01
KCO1 080719Z 03003KT 03/03 A3024 RMK A01 T00300027  RH  098%=      5-min Rain = 0
KCO1 080720Z 02004KT 03/03 A3024 RMK A01 T00300027  RH  098%=      5-min Rain = 0
KCO1 080721Z 03004KT 03/03 A3024 RMK A01 T00300027  RH  098%=      5-min Rain = 0
KCO1 080722Z 03005KT 03/03 A3024 RMK A01 T00300027  RH  098%=      5-min Rain = 0.01
KCO1 080723Z 01004KT 03/03 A3024 RMK A01 T00300027  RH  098%=      5-min Rain = 0
KCO1 080724Z 01004KT 03/03 A3024 RMK A01 T00310028  RH  098%=      5-min Rain = 0
KCO1 080725Z 01005KT 03/03 A3024 RMK A01 T00310028  RH  098%=      5-min Rain = 0
KCO1 080726Z 00005KT 03/03 A3024 RMK A01 T00310028  RH  098%=      5-min Rain = 0
KCO1 080727Z 01006KT 03/03 A3024 RMK A01 T00310028  RH  098%=      5-min Rain = 0
KCO1 080728Z 01006KT 03/03 A3024 RMK A01 T00310028  RH  098%=      5-min Rain = 0.01
KCO1 080729Z 00005KT 03/03 A3024 RMK A01 T00300027  RH  098%=      5-min Rain = 0
KCO1 080730Z 00005KT 03/03 A3024 RMK A01 T00300027  RH  098%=      5-min Rain = 0
KCO1 080731Z 36006KT 03/03 A3024 RMK A01 T00300027  RH  098%=      5-min Rain = 0
KCO1 080732Z 00006KT 03/03 A3024 RMK A01 T00300027  RH  098%=      5-min Rain = 0.01
KCO1 080733Z 36005KT 03/03 A3024 RMK A01 T00300027  RH  098%=      5-min Rain = 0
KCO1 080734Z 00005KT 03/03 A3024 RMK A01 T00300026  RH  098%=      5-min Rain = 0.01
KCO1 080735Z 00006KT 03/03 A3024 RMK A01 T00300027  RH  098%=      5-min Rain = 0
KCO1 080736Z 01006KT 03/03 A3024 RMK A01 T00290026  RH  098%=      5-min Rain = 0.01
KCO1 080737Z 02007KT 03/03 A3024 RMK A01 T00290026  RH  098%=      5-min Rain = 0
KCO1 080738Z 02006KT 03/03 A3024 RMK A01 T00290026  RH  098%=      5-min Rain = 0.01
KCO1 080739Z 03005KT 03/03 A3024 RMK A01 T00290026  RH  098%=      5-min Rain = 0
KCO1 080740Z 02006KT 03/03 A3024 RMK A01 T00290026  RH  098%=      5-min Rain = 0.01
KCO1 080741Z 02006KT 03/03 A3024 RMK A01 T00280025  RH  098%=      5-min Rain = 0
KCO1 080742Z 02006KT 03/03 A3024 RMK A01 T00290026  RH  098%=      5-min Rain = 0.01
KCO1 080743Z 01005KT 03/03 A3024 RMK A01 T00280025  RH  098%=      5-min Rain = 0
KCO1 080744Z 02005KT 03/03 A3024 RMK A01 T00280025  RH  098%=      5-min Rain = 0
KCO1 080745Z 02005KT 03/03 A3024 RMK A01 T00280025  RH  098%=      5-min Rain = 0.01
KCO1 080746Z 02005KT 03/03 A3024 RMK A01 T00280025  RH  098%=      5-min Rain = 0
KCO1 080747Z 01005KT 03/03 A3024 RMK A01 T00280025  RH  098%=      5-min Rain = 0.01
KCO1 080748Z 02006KT 03/03 A3024 RMK A01 T00280025  RH  098%=      5-min Rain = 0
KCO1 080749Z 01005KT 03/03 A3024 RMK A01 T00280025  RH  098%=      5-min Rain = 0.01
KCO1 080750Z 02005KT 03/03 A3024 RMK A01 T00280025  RH  098%=      5-min Rain = 0
KCO1 080751Z 02005KT 03/03 A3024 RMK A01 T00280025  RH  098%=      5-min Rain = 0
KCO1 080752Z 02005KT 03/03 A3024 RMK A01 T00280025  RH  098%=      5-min Rain = 0.01
KCO1 080753Z 02005KT 03/03 A3024 RMK A01 T00280025  RH  098%=      5-min Rain = 0
KCO1 080754Z 01005KT 03/03 A3024 RMK A01 T00280025  RH  098%=      5-min Rain = 0
KCO1 080755Z 01005KT 03/03 A3024 RMK A01 T00280025  RH  098%=      5-min Rain = 0
KCO1 080756Z 01005KT 03/03 A3024 RMK A01 T00280025  RH  098%=      5-min Rain = 0.01
KCO1 080757Z 01005KT 03/03 A3024 RMK A01 T00280025  RH  098%=      5-min Rain = 0
KCO1 080758Z 01004KT 03/03 A3024 RMK A01 T00280025  RH  098%=      5-min Rain = 0
KCO1 080759Z 00004KT 03/03 A3024 RMK A01 T00280025  RH  098%=      5-min Rain = 0
KCO1 080800Z 36004KT 03/03 A3024 RMK A01 T00280025  RH  098%=      5-min Rain = 0
KCO1 080801Z 35003KT 03/03 A3024 RMK A01 T00290026  RH  098%=      5-min Rain = 0
KCO1 080802Z 35003KT 03/03 A3024 RMK A01 T00290026  RH  098%=      5-min Rain = 0.01
KCO1 080803Z 00004KT 03/03 A3024 RMK A01 T00290026  RH  098%=      5-min Rain = 0
KCO1 080804Z 36004KT 03/03 A3024 RMK A01 T00290026  RH  098%=      5-min Rain = 0
KCO1 080805Z 36004KT 03/03 A3024 RMK A01 T00290026  RH  098%=      5-min Rain = 0
KCO1 080806Z 35004KT 03/03 A3024 RMK A01 T00290026  RH  098%=      5-min Rain = 0
KCO1 080807Z 36004KT 03/03 A3024 RMK A01 T00290026  RH  098%=      5-min Rain = 0.01
KCO1 080808Z 36005KT 03/03 A3024 RMK A01 T00290026  RH  098%=      5-min Rain = 0
KCO1 080809Z 36005KT 03/03 A3024 RMK A01 T00290026  RH  098%=      5-min Rain = 0
KCO1 080810Z 36005KT 03/03 A3024 RMK A01 T00290026  RH  098%=      5-min Rain = 0
KCO1 080811Z 36005KT 03/03 A3024 RMK A01 T00290026  RH  098%=      5-min Rain = 0
KCO1 080812Z 36004KT 03/03 A3024 RMK A01 T00290026  RH  098%=      5-min Rain = 0.01
KCO1 080813Z 35003KT 03/03 A3024 RMK A01 T00290026  RH  098%=      5-min Rain = 0
KCO1 080814Z 35003KT 03/03 A3024 RMK A01 T00290026  RH  098%=      5-min Rain = 0
KCO1 080815Z 35004KT 03/03 A3024 RMK A01 T00290026  RH  098%=      5-min Rain = 0
KCO1 080816Z 36005KT 03/03 A3024 RMK A01 T00290027  RH  098%=      5-min Rain = 0
KCO1 080817Z 35004KT 03/03 A3024 RMK A01 T00300027  RH  098%=      5-min Rain = 0.01
KCO1 080818Z 35005KT 03/03 A3024 RMK A01 T00300027  RH  098%=      5-min Rain = 0
KCO1 080819Z 35006KT 03/03 A3024 RMK A01 T00300027  RH  098%=      5-min Rain = 0
KCO1 080820Z 00006KT 03/03 A3024 RMK A01 T00290027  RH  098%=      5-min Rain = 0
KCO1 080821Z 00006KT 03/03 A3024 RMK A01 T00290027  RH  098%=      5-min Rain = 0
KCO1 080822Z 00006KT 03/03 A3024 RMK A01 T00290027  RH  098%=      5-min Rain = 0
KCO1 080823Z 00005KT 03/03 A3024 RMK A01 T00290026  RH  098%=      5-min Rain = 0
KCO1 080824Z 00005KT 03/03 A3024 RMK A01 T00290026  RH  098%=      5-min Rain = 0
KCO1 080825Z 00005KT 03/03 A3024 RMK A01 T00280026  RH  098%=      5-min Rain = 0
KCO1 080826Z 36005KT 03/03 A3024 RMK A01 T00290026  RH  098%=      5-min Rain = 0
KCO1 080827Z 35004KT 03/03 A3024 RMK A01 T00290026  RH  098%=      5-min Rain = 0
KCO1 080828Z 35004KT 03/03 A3024 RMK A01 T00290026  RH  098%=      5-min Rain = 0
KCO1 080829Z 35004KT 03/03 A3024 RMK A01 T00290026  RH  098%=      5-min Rain = 0
KCO1 080830Z 35004KT 03/03 A3024 RMK A01 T00290027  RH  098%=      5-min Rain = 0
KCO1 080831Z 35005KT 03/03 A3024 RMK A01 T00300027  RH  098%=      5-min Rain = 0
KCO1 080832Z 35005KT 03/03 A3024 RMK A01 T00300027  RH  098%=      5-min Rain = 0
KCO1 080833Z 35005KT 03/03 A3024 RMK A01 T00300027  RH  098%=      5-min Rain = 0
KCO1 080834Z 35005KT 03/03 A3024 RMK A01 T00290027  RH  098%=      5-min Rain = 0
KCO1 080835Z 35005KT 03/03 A3024 RMK A01 T00290027  RH  098%=      5-min Rain = 0
KCO1 080836Z 35004KT 03/03 A3024 RMK A01 T00300027  RH  098%=      5-min Rain = 0
KCO1 080837Z 35004KT 03/03 A3024 RMK A01 T00290027  RH  098%=      5-min Rain = 0
KCO1 080838Z 35004KT 03/03 A3025 RMK A01 T00300027  RH  098%=      5-min Rain = 0
KCO1 080839Z 35003KT 03/03 A3025 RMK A01 T00290027  RH  098%=      5-min Rain = 0
KCO1 080840Z 35003KT 03/03 A3025 RMK A01 T00290027  RH  098%=      5-min Rain = 0
KCO1 080841Z 35004KT 03/03 A3025 RMK A01 T00290027  RH  098%=      5-min Rain = 0
KCO1 080842Z 35004KT 03/03 A3025 RMK A01 T00300027  RH  098%=      5-min Rain = 0
KCO1 080843Z 34004KT 03/03 A3025 RMK A01 T00300027  RH  098%=      5-min Rain = 0
KCO1 080844Z 34004KT 03/03 A3025 RMK A01 T00300027  RH  098%=      5-min Rain = 0
KCO1 080845Z 35004KT 03/03 A3025 RMK A01 T00290027  RH  098%=      5-min Rain = 0
KCO1 080846Z 35004KT 03/03 A3025 RMK A01 T00300027  RH  098%=      5-min Rain = 0
KCO1 080847Z 35004KT 03/03 A3025 RMK A01 T00290027  RH  098%=      5-min Rain = 0
KCO1 080848Z 35004KT 03/03 A3025 RMK A01 T00300027  RH  098%=      5-min Rain = 0
KCO1 080849Z 35005KT 03/03 A3025 RMK A01 T00300027  RH  098%=      5-min Rain = 0.01
KCO1 080850Z 36006KT 03/03 A3025 RMK A01 T00300028  RH  098%=      5-min Rain = 0
KCO1 080851Z 00006KT 03/03 A3025 RMK A01 T00290027  RH  098%=      5-min Rain = 0
KCO1 080852Z 00007KT 03/03 A3025 RMK A01 T00290026  RH  098%=      5-min Rain = 0
KCO1 080853Z 00007KT 03/03 A3024 RMK A01 T00290026  RH  098%=      5-min Rain = 0
KCO1 080854Z 00007KT 03/03 A3024 RMK A01 T00280026  RH  098%=      5-min Rain = 0
KCO1 080855Z 00006KT 03/03 A3024 RMK A01 T00280025  RH  098%=      5-min Rain = 0
KCO1 080856Z 00006KT 03/03 A3024 RMK A01 T00280025  RH  098%=      5-min Rain = 0
KCO1 080857Z 00006KT 03/03 A3024 RMK A01 T00280025  RH  098%=      5-min Rain = 0.01
KCO1 080858Z 00006KT 03/03 A3024 RMK A01 T00280025  RH  098%=      5-min Rain = 0
KCO1 080859Z 00005KT 03/03 A3024 RMK A01 T00280025  RH  098%=      5-min Rain = 0
KCO1 080900Z 01004KT 03/03 A3024 RMK A01 T00280025  RH  098%=      5-min Rain = 0
KCO1 080901Z 01004KT 03/03 A3024 RMK A01 T00280025  RH  098%=      5-min Rain = 0
KCO1 080902Z 00005KT 03/03 A3024 RMK A01 T00280026  RH  098%=      5-min Rain = 0
KCO1 080903Z 36005KT 03/03 A3024 RMK A01 T00290026  RH  098%=      5-min Rain = 0
KCO1 080904Z 36005KT 03/03 A3024 RMK A01 T00280025  RH  098%=      5-min Rain = 0
KCO1 080905Z 00006KT 03/03 A3024 RMK A01 T00280025  RH  098%=      5-min Rain = 0
KCO1 080906Z 01006KT 03/03 A3024 RMK A01 T00280025  RH  098%=      5-min Rain = 0
KCO1 080907Z 01005KT 03/03 A3024 RMK A01 T00280025  RH  098%=      5-min Rain = 0
KCO1 080908Z 00005KT 03/03 A3024 RMK A01 T00280025  RH  098%=      5-min Rain = 0.01
KCO1 080909Z 01005KT 03/03 A3024 RMK A01 T00280025  RH  098%=      5-min Rain = 0
KCO1 080910Z 36005KT 03/03 A3024 RMK A01 T00280025  RH  098%=      5-min Rain = 0
KCO1 080911Z 00005KT 03/03 A3024 RMK A01 T00280025  RH  098%=      5-min Rain = 0
KCO1 080912Z 00006KT 03/03 A3024 RMK A01 T00280025  RH  098%=      5-min Rain = 0
KCO1 080913Z 36005KT 03/03 A3024 RMK A01 T00280025  RH  098%=      5-min Rain = 0
KCO1 080914Z 00004KT 03/03 A3024 RMK A01 T00280025  RH  098%=      5-min Rain = 0
KCO1 080915Z 00004KT 03/03 A3024 RMK A01 T00280025  RH  098%=      5-min Rain = 0
KCO1 080916Z 36004KT 03/03 A3024 RMK A01 T00280025  RH  098%=      5-min Rain = 0
KCO1 080917Z 00004KT 03/03 A3024 RMK A01 T00280025  RH  098%=      5-min Rain = 0
KCO1 080918Z 00004KT 03/03 A3024 RMK A01 T00280025  RH  098%=      5-min Rain = 0
KCO1 080919Z 36004KT 03/03 A3024 RMK A01 T00280025  RH  098%=      5-min Rain = 0
KCO1 080920Z 35003KT 03/03 A3024 RMK A01 T00280025  RH  098%=      5-min Rain = 0.01
KCO1 080921Z 00005KT 03/03 A3024 RMK A01 T00290025  RH  098%=      5-min Rain = 0
KCO1 080922Z 00004KT 03/03 A3024 RMK A01 T00290025  RH  098%=      5-min Rain = 0
KCO1 080923Z 01004KT 03/03 A3024 RMK A01 T00290025  RH  098%=      5-min Rain = 0
KCO1 080924Z 01004KT 03/03 A3024 RMK A01 T00290025  RH  098%=      5-min Rain = 0
KCO1 080925Z 00004KT 03/03 A3024 RMK A01 T00290025  RH  098%=      5-min Rain = 0
KCO1 080926Z 01003KT 03/03 A3024 RMK A01 T00290026  RH  098%=      5-min Rain = 0
KCO1 080927Z 01003KT 03/03 A3024 RMK A01 T00290026  RH  098%=      5-min Rain = 0
KCO1 080928Z 01004KT 03/03 A3024 RMK A01 T00290026  RH  098%=      5-min Rain = 0
KCO1 080929Z 01004KT 03/03 A3024 RMK A01 T00290026  RH  098%=      5-min Rain = 0
KCO1 080930Z 01003KT 03/03 A3024 RMK A01 T00300026  RH  098%=      5-min Rain = 0
KCO1 080931Z 01004KT 03/03 A3024 RMK A01 T00300027  RH  098%=      5-min Rain = 0
KCO1 080932Z 01003KT 03/03 A3024 RMK A01 T00300026  RH  098%=      5-min Rain = 0
KCO1 080933Z 00004KT 03/03 A3024 RMK A01 T00300027  RH  098%=      5-min Rain = 0
KCO1 080934Z 01004KT 03/03 A3024 RMK A01 T00300027  RH  098%=      5-min Rain = 0
KCO1 080935Z 00004KT 03/03 A3024 RMK A01 T00300027  RH  098%=      5-min Rain = 0
KCO1 080936Z 00004KT 03/03 A3024 RMK A01 T00300027  RH  098%=      5-min Rain = 0
KCO1 080937Z 00005KT 03/03 A3024 RMK A01 T00300027  RH  098%=      5-min Rain = 0.01
KCO1 080938Z 00004KT 03/03 A3024 RMK A01 T00300026  RH  098%=      5-min Rain = 0
KCO1 080939Z 01005KT 03/03 A3024 RMK A01 T00290026  RH  098%=      5-min Rain = 0
KCO1 080940Z 01004KT 03/03 A3024 RMK A01 T00290026  RH  098%=      5-min Rain = 0
KCO1 080941Z 01005KT 03/03 A3024 RMK A01 T00300026  RH  098%=      5-min Rain = 0
KCO1 080942Z 01004KT 03/03 A3024 RMK A01 T00290026  RH  098%=      5-min Rain = 0.01
KCO1 080943Z 01003KT 03/03 A3024 RMK A01 T00300026  RH  098%=      5-min Rain = 0
KCO1 080944Z 01004KT 03/03 A3024 RMK A01 T00300026  RH  098%=      5-min Rain = 0
KCO1 080945Z 01004KT 03/03 A3024 RMK A01 T00290026  RH  098%=      5-min Rain = 0
KCO1 080946Z 00005KT 03/03 A3024 RMK A01 T00300027  RH  098%=      5-min Rain = 0.01
KCO1 080947Z 00004KT 03/03 A3024 RMK A01 T00300027  RH  098%=      5-min Rain = 0
KCO1 080948Z 00004KT 03/03 A3024 RMK A01 T00300027  RH  098%=      5-min Rain = 0
KCO1 080949Z 36005KT 03/03 A3024 RMK A01 T00300027  RH  098%=      5-min Rain = 0.01
KCO1 080950Z 36005KT 03/03 A3024 RMK A01 T00300027  RH  098%=      5-min Rain = 0
KCO1 080951Z 00005KT 03/03 A3024 RMK A01 T00300027  RH  098%=      5-min Rain = 0
KCO1 080952Z 36004KT 03/03 A3024 RMK A01 T00300027  RH  098%=      5-min Rain = 0.01
KCO1 080953Z 36004KT 03/03 A3024 RMK A01 T00300027  RH  098%=      5-min Rain = 0
KCO1 080954Z 35004KT 03/03 A3024 RMK A01 T00300027  RH  098%=      5-min Rain = 0
KCO1 080955Z 36004KT 03/03 A3024 RMK A01 T00300027  RH  098%=      5-min Rain = 0.01
KCO1 080956Z 36004KT 03/03 A3024 RMK A01 T00300027  RH  098%=      5-min Rain = 0
KCO1 080957Z 35004KT 03/03 A3024 RMK A01 T00300027  RH  098%=      5-min Rain = 0
KCO1 080958Z 35004KT 03/03 A3024 RMK A01 T00300027  RH  098%=      5-min Rain = 0
KCO1 080959Z 35005KT 03/03 A3024 RMK A01 T00300027  RH  098%=      5-min Rain = 0
KCO1 081000Z 35004KT 03/03 A3024 RMK A01 T00300027  RH  098%=      5-min Rain = 0
KCO1 081001Z 35004KT 03/03 A3024 RMK A01 T00300027  RH  098%=      5-min Rain = 0.01
KCO1 081002Z 36004KT 03/03 A3024 RMK A01 T00300027  RH  098%=      5-min Rain = 0
KCO1 081003Z 00005KT 03/03 A3024 RMK A01 T00300027  RH  098%=      5-min Rain = 0
KCO1 081004Z 00005KT 03/03 A3024 RMK A01 T00300027  RH  098%=      5-min Rain = 0
KCO1 081005Z 35005KT 03/03 A3024 RMK A01 T00300027  RH  098%=      5-min Rain = 0
KCO1 081006Z 35005KT 03/03 A3024 RMK A01 T00300027  RH  098%=      5-min Rain = 0
KCO1 081007Z 35004KT 03/03 A3024 RMK A01 T00300027  RH  098%=      5-min Rain = 0
KCO1 081008Z 35005KT 03/03 A3024 RMK A01 T00290026  RH  098%=      5-min Rain = 0
KCO1 081009Z 35005KT 03/03 A3024 RMK A01 T00300027  RH  098%=      5-min Rain = 0.01
KCO1 081010Z 35005KT 03/03 A3024 RMK A01 T00300027  RH  098%=      5-min Rain = 0
KCO1 081011Z 34005KT 03/03 A3024 RMK A01 T00300027  RH  098%=      5-min Rain = 0
KCO1 081012Z 35006KT 03/03 A3024 RMK A01 T00290026  RH  098%=      5-min Rain = 0
KCO1 081013Z 34005KT 03/03 A3024 RMK A01 T00290026  RH  098%=      5-min Rain = 0
KCO1 081014Z 34005KT 03/03 A3024 RMK A01 T00290026  RH  098%=      5-min Rain = 0
KCO1 081015Z 35004KT 03/03 A3024 RMK A01 T00290026  RH  098%=      5-min Rain = 0
KCO1 081016Z 35004KT 03/03 A3024 RMK A01 T00300027  RH  098%=      5-min Rain = 0
KCO1 081017Z 35003KT 03/03 A3024 RMK A01 T00300027  RH  098%=      5-min Rain = 0
KCO1 081018Z 36004KT 03/03 A3024 RMK A01 T00300027  RH  098%=      5-min Rain = 0
KCO1 081019Z 35003KT 03/03 A3024 RMK A01 T00290026  RH  098%=      5-min Rain = 0.01
KCO1 081020Z 35003KT 03/03 A3024 RMK A01 T00300027  RH  098%=      5-min Rain = 0
KCO1 081021Z 35004KT 03/03 A3024 RMK A01 T00300027  RH  098%=      5-min Rain = 0
KCO1 081022Z 35005KT 03/03 A3024 RMK A01 T00300027  RH  098%=      5-min Rain = 0
KCO1 081023Z 35004KT 03/03 A3024 RMK A01 T00300027  RH  098%=      5-min Rain = 0
KCO1 081024Z 34003KT 03/03 A3024 RMK A01 T00290026  RH  098%=      5-min Rain = 0
KCO1 081025Z 34003KT 03/03 A3024 RMK A01 T00300027  RH  098%=      5-min Rain = 0
KCO1 081026Z 33003KT 03/03 A3024 RMK A01 T00300027  RH  098%=      5-min Rain = 0
KCO1 081027Z 33004KT 03/03 A3024 RMK A01 T00300027  RH  098%=      5-min Rain = 0
KCO1 081028Z 33004KT 03/03 A3024 RMK A01 T00300028  RH  098%=      5-min Rain = 0.01
KCO1 081029Z 34004KT 03/03 A3024 RMK A01 T00300028  RH  098%=      5-min Rain = 0
KCO1 081030Z 34004KT 03/03 A3024 RMK A01 T00300028  RH  098%=      5-min Rain = 0
KCO1 081031Z 34004KT 03/03 A3024 RMK A01 T00310028  RH  098%=      5-min Rain = 0
KCO1 081032Z 34004KT 03/03 A3024 RMK A01 T00300028  RH  098%=      5-min Rain = 0
KCO1 081033Z 34003KT 03/03 A3024 RMK A01 T00300028  RH  098%=      5-min Rain = 0
KCO1 081034Z 33003KT 03/03 A3024 RMK A01 T00300028  RH  098%=      5-min Rain = 0
KCO1 081035Z 33003KT 03/03 A3024 RMK A01 T00300028  RH  098%=      5-min Rain = 0
KCO1 081036Z 33002KT 03/03 A3024 RMK A01 T00300028  RH  098%=      5-min Rain = 0
KCO1 081037Z 33003KT 03/03 A3024 RMK A01 T00300028  RH  098%=      5-min Rain = 0.01
KCO1 081038Z 34003KT 03/03 A3024 RMK A01 T00310028  RH  098%=      5-min Rain = 0
KCO1 081039Z 34003KT 03/03 A3024 RMK A01 T00300027  RH  098%=      5-min Rain = 0
KCO1 081040Z 34002KT 03/03 A3024 RMK A01 T00300028  RH  098%=      5-min Rain = 0
KCO1 081041Z 33002KT 03/03 A3024 RMK A01 T00310028  RH  098%=      5-min Rain = 0
KCO1 081042Z 33002KT 03/03 A3024 RMK A01 T00300028  RH  098%=      5-min Rain = 0
KCO1 081043Z 33002KT 03/03 A3024 RMK A01 T00300027  RH  098%=      5-min Rain = 0
KCO1 081044Z 32003KT 03/03 A3024 RMK A01 T00310028  RH  098%=      5-min Rain = 0
KCO1 081045Z 32004KT 03/03 A3024 RMK A01 T00300028  RH  098%=      5-min Rain = 0
KCO1 081046Z 33003KT 03/03 A3024 RMK A01 T00310028  RH  098%=      5-min Rain = 0
KCO1 081047Z 32003KT 03/03 A3024 RMK A01 T00310028  RH  098%=      5-min Rain = 0
KCO1 081048Z 32003KT 03/03 A3024 RMK A01 T00300027  RH  098%=      5-min Rain = 0
KCO1 081049Z 32003KT 03/03 A3024 RMK A01 T00310028  RH  098%=      5-min Rain = 0
KCO1 081050Z 33002KT 03/03 A3024 RMK A01 T00310028  RH  098%=      5-min Rain = 0
KCO1 081051Z 32002KT 03/03 A3024 RMK A01 T00310028  RH  098%=      5-min Rain = 0
KCO1 081052Z 31002KT 03/03 A3024 RMK A01 T00310028  RH  098%=      5-min Rain = 0
KCO1 081053Z 31003KT 03/03 A3024 RMK A01 T00310028  RH  098%=      5-min Rain = 0
KCO1 081054Z 31002KT 03/03 A3024 RMK A01 T00310028  RH  098%=      5-min Rain = 0
KCO1 081055Z 31003KT 03/03 A3024 RMK A01 T00310028  RH  098%=      5-min Rain = 0
KCO1 081056Z 32003KT 03/03 A3024 RMK A01 T00310028  RH  098%=      5-min Rain = 0
KCO1 081057Z 33002KT 03/03 A3024 RMK A01 T00310028  RH  098%=      5-min Rain = 0
KCO1 081058Z 32002KT 03/03 A3024 RMK A01 T00310029  RH  098%=      5-min Rain = 0
KCO1 081059Z 32002KT 03/03 A3024 RMK A01 T00310029  RH  098%=      5-min Rain = 0
KCO1 081100Z 32003KT 03/03 A3024 RMK A01 T00310029  RH  098%=      5-min Rain = 0
KCO1 081101Z 34003KT 03/03 A3024 RMK A01 T00320029  RH  098%=      5-min Rain = 0
KCO1 081102Z 32004KT 03/03 A3024 RMK A01 T00310029  RH  098%=      5-min Rain = 0
KCO1 081103Z 34003KT 03/03 A3024 RMK A01 T00310029  RH  098%=      5-min Rain = 0
KCO1 081104Z 33003KT 03/03 A3024 RMK A01 T00320029  RH  098%=      5-min Rain = 0
KCO1 081105Z 33004KT 03/03 A3024 RMK A01 T00320029  RH  098%=      5-min Rain = 0
KCO1 081106Z 34004KT 03/03 A3024 RMK A01 T00320029  RH  098%=      5-min Rain = 0
KCO1 081107Z 33004KT 03/03 A3024 RMK A01 T00320029  RH  098%=      5-min Rain = 0
KCO1 081108Z 33003KT 03/03 A3024 RMK A01 T00320029  RH  098%=      5-min Rain = 0
KCO1 081109Z 33004KT 03/03 A3024 RMK A01 T00320029  RH  098%=      5-min Rain = 0
KCO1 081110Z 33003KT 03/03 A3024 RMK A01 T00320029  RH  098%=      5-min Rain = 0
KCO1 081111Z 33004KT 03/03 A3024 RMK A01 T00320029  RH  098%=      5-min Rain = 0
KCO1 081112Z 32004KT 03/03 A3024 RMK A01 T00320029  RH  098%=      5-min Rain = 0
KCO1 081113Z 31004KT 03/03 A3024 RMK A01 T00320029  RH  098%=      5-min Rain = 0
KCO1 081114Z 32004KT 03/03 A3024 RMK A01 T00320029  RH  098%=      5-min Rain = 0
KCO1 081115Z 31004KT 03/03 A3024 RMK A01 T00320029  RH  098%=      5-min Rain = 0.01
KCO1 081116Z 31003KT 03/03 A3024 RMK A01 T00320029  RH  098%=      5-min Rain = 0
KCO1 081117Z 32004KT 03/03 A3025 RMK A01 T00320030  RH  098%=      5-min Rain = 0
KCO1 081118Z 31004KT 03/03 A3025 RMK A01 T00320030  RH  098%=      5-min Rain = 0
KCO1 081119Z 32004KT 03/03 A3025 RMK A01 T00320030  RH  098%=      5-min Rain = 0
KCO1 081120Z 33006KT 03/03 A3025 RMK A01 T00320030  RH  098%=      5-min Rain = 0
KCO1 081121Z 32004KT 03/03 A3025 RMK A01 T00320030  RH  098%=      5-min Rain = 0
KCO1 081122Z 33005KT 03/03 A3025 RMK A01 T00320030  RH  098%=      5-min Rain = 0
KCO1 081123Z 32005KT 03/03 A3025 RMK A01 T00330030  RH  098%=      5-min Rain = 0
KCO1 081124Z 32006KT 03/03 A3025 RMK A01 T00330031  RH  098%=      5-min Rain = 0
KCO1 081125Z 33006KT 03/03 A3025 RMK A01 T00330030  RH  098%=      5-min Rain = 0
KCO1 081126Z 33006KT 03/03 A3025 RMK A01 T00330030  RH  098%=      5-min Rain = 0
KCO1 081127Z 33006KT 03/03 A3025 RMK A01 T00330030  RH  098%=      5-min Rain = 0
KCO1 081128Z 33006KT 03/03 A3025 RMK A01 T00330030  RH  098%=      5-min Rain = 0
KCO1 081129Z 33006KT 03/03 A3025 RMK A01 T00330030  RH  098%=      5-min Rain = 0
KCO1 081130Z 33005KT 03/03 A3025 RMK A01 T00330030  RH  098%=      5-min Rain = 0
KCO1 081131Z 33006KT 03/03 A3025 RMK A01 T00330030  RH  098%=      5-min Rain = 0
KCO1 081132Z 33006KT 03/03 A3025 RMK A01 T00330030  RH  098%=      5-min Rain = 0
KCO1 081133Z 33008KT 03/03 A3025 RMK A01 T00330030  RH  098%=      5-min Rain = 0
KCO1 081134Z 33006KT 03/03 A3025 RMK A01 T00330030  RH  098%=      5-min Rain = 0
KCO1 081135Z 33006KT 03/03 A3025 RMK A01 T00330030  RH  098%=      5-min Rain = 0
KCO1 081136Z 33007KT 03/03 A3025 RMK A01 T00330029  RH  098%=      5-min Rain = 0
KCO1 081137Z 33007KT 03/03 A3025 RMK A01 T00330029  RH  098%=      5-min Rain = 0
KCO1 081138Z 34007KT 03/03 A3025 RMK A01 T00330029  RH  097%=      5-min Rain = 0
KCO1 081139Z 34005KT 03/03 A3025 RMK A01 T00330029  RH  097%=      5-min Rain = 0
KCO1 081140Z 34006KT 03/03 A3025 RMK A01 T00330029  RH  097%=      5-min Rain = 0
KCO1 081141Z 34006KT 03/03 A3025 RMK A01 T00330029  RH  097%=      5-min Rain = 0
KCO1 081142Z 34007KT 03/03 A3025 RMK A01 T00330029  RH  097%=      5-min Rain = 0
KCO1 081143Z 34007KT 03/03 A3026 RMK A01 T00330029  RH  097%=      5-min Rain = 0
KCO1 081144Z 35008KT 03/03 A3026 RMK A01 T00330029  RH  097%=      5-min Rain = 0
KCO1 081145Z 34007KT 03/03 A3026 RMK A01 T00330029  RH  097%=      5-min Rain = 0
KCO1 081146Z 35007KT 03/03 A3026 RMK A01 T00330029  RH  097%=      5-min Rain = 0
KCO1 081147Z 34006KT 03/03 A3026 RMK A01 T00330028  RH  097%=      5-min Rain = 0
KCO1 081148Z 34006KT 03/03 A3026 RMK A01 T00330029  RH  097%=      5-min Rain = 0
KCO1 081149Z 34005KT 03/03 A3026 RMK A01 T00330028  RH  097%=      5-min Rain = 0
KCO1 081150Z 34006KT 03/03 A3026 RMK A01 T00330029  RH  097%=      5-min Rain = 0
KCO1 081151Z 34006KT 03/03 A3026 RMK A01 T00330029  RH  097%=      5-min Rain = 0
KCO1 081152Z 34006KT 03/03 A3026 RMK A01 T00330028  RH  097%=      5-min Rain = 0
KCO1 081153Z 34005KT 03/03 A3026 RMK A01 T00330028  RH  097%=      5-min Rain = 0
KCO1 081154Z 35004KT 03/03 A3026 RMK A01 T00330028  RH  097%=      5-min Rain = 0
KCO1 081155Z 35005KT 03/03 A3026 RMK A01 T00330028  RH  097%=      5-min Rain = 0
KCO1 081156Z 34005KT 03/03 A3026 RMK A01 T00330028  RH  097%=      5-min Rain = 0
KCO1 081157Z 34006KT 03/03 A3026 RMK A01 T00330028  RH  097%=      5-min Rain = 0
KCO1 081158Z 35006KT 03/03 A3026 RMK A01 T00330028  RH  097%=      5-min Rain = 0
KCO1 081159Z 34005KT 03/03 A3026 RMK A01 T00330028  RH  097%=      5-min Rain = 0
KCO1 081200Z 34005KT 03/03 A3026 RMK A01 T00330028  RH  097%=      5-min Rain = 0
KCO1 081201Z 34006KT 03/03 A3026 RMK A01 T00330028  RH  097%=      5-min Rain = 0
KCO1 081202Z 34006KT 03/03 A3026 RMK A01 T00330028  RH  097%=      5-min Rain = 0
KCO1 081203Z 34007KT 03/03 A3026 RMK A01 T00330029  RH  097%=      5-min Rain = 0
KCO1 081204Z 35007KT 03/03 A3026 RMK A01 T00330029  RH  097%=      5-min Rain = 0
KCO1 081205Z 34007KT 03/03 A3026 RMK A01 T00330028  RH  097%=      5-min Rain = 0
KCO1 081206Z 35008KT 03/03 A3026 RMK A01 T00330028  RH  097%=      5-min Rain = 0
KCO1 081207Z 35008KT 03/03 A3026 RMK A01 T00320027  RH  097%=      5-min Rain = 0
KCO1 081208Z 36007KT 03/03 A3026 RMK A01 T00320027  RH  097%=      5-min Rain = 0
KCO1 081209Z 35007KT 03/03 A3026 RMK A01 T00320027  RH  097%=      5-min Rain = 0
KCO1 081210Z 35006KT 03/03 A3026 RMK A01 T00320027  RH  097%=      5-min Rain = 0
KCO1 081211Z 35006KT 03/03 A3026 RMK A01 T00320027  RH  097%=      5-min Rain = 0
KCO1 081212Z 35007KT 03/03 A3026 RMK A01 T00320027  RH  097%=      5-min Rain = 0
KCO1 081213Z 35007KT 03/03 A3027 RMK A01 T00320027  RH  097%=      5-min Rain = 0
KCO1 081214Z 35007KT 03/03 A3027 RMK A01 T00310027  RH  097%=      5-min Rain = 0
KCO1 081215Z 35008KT 03/03 A3027 RMK A01 T00310027  RH  097%=      5-min Rain = 0
KCO1 081216Z 36007KT 03/03 A3027 RMK A01 T00310027  RH  097%=      5-min Rain = 0
KCO1 081217Z 34006KT 03/03 A3027 RMK A01 T00310027  RH  097%=      5-min Rain = 0
KCO1 081218Z 35005KT 03/03 A3027 RMK A01 T00310026  RH  097%=      5-min Rain = 0
KCO1 081219Z 34005KT 03/03 A3027 RMK A01 T00310027  RH  097%=      5-min Rain = 0
KCO1 081220Z 35005KT 03/03 A3027 RMK A01 T00310027  RH  097%=      5-min Rain = 0
KCO1 081221Z 35005KT 03/03 A3027 RMK A01 T00310027  RH  097%=      5-min Rain = 0
KCO1 081222Z 34005KT 03/03 A3027 RMK A01 T00310027  RH  097%=      5-min Rain = 0
KCO1 081223Z 35005KT 03/03 A3027 RMK A01 T00320028  RH  097%=      5-min Rain = 0
KCO1 081224Z 34006KT 03/03 A3027 RMK A01 T00320028  RH  097%=      5-min Rain = 0
KCO1 081225Z 35005KT 03/03 A3027 RMK A01 T00320028  RH  097%=      5-min Rain = 0
KCO1 081226Z 35005KT 03/03 A3027 RMK A01 T00320028  RH  097%=      5-min Rain = 0
KCO1 081227Z 34006KT 03/03 A3027 RMK A01 T00320028  RH  097%=      5-min Rain = 0
KCO1 081228Z 35007KT 03/03 A3027 RMK A01 T00320028  RH  097%=      5-min Rain = 0
KCO1 081229Z 35007KT 03/03 A3027 RMK A01 T00320028  RH  097%=      5-min Rain = 0
KCO1 081230Z 34006KT 03/03 A3027 RMK A01 T00320028  RH  097%=      5-min Rain = 0
KCO1 081231Z 35006KT 03/03 A3027 RMK A01 T00310027  RH  097%=      5-min Rain = 0
KCO1 081232Z 35005KT 03/03 A3027 RMK A01 T00310027  RH  097%=      5-min Rain = 0
KCO1 081233Z 35006KT 03/03 A3027 RMK A01 T00310028  RH  097%=      5-min Rain = 0
KCO1 081234Z 34006KT 03/03 A3027 RMK A01 T00310028  RH  097%=      5-min Rain = 0
KCO1 081235Z 35006KT 03/03 A3027 RMK A01 T00310028  RH  097%=      5-min Rain = 0
KCO1 081236Z 35006KT 03/03 A3027 RMK A01 T00310028  RH  097%=      5-min Rain = 0
KCO1 081237Z 35005KT 03/03 A3027 RMK A01 T00310027  RH  097%=      5-min Rain = 0
KCO1 081238Z 35005KT 03/03 A3027 RMK A01 T00310027  RH  097%=      5-min Rain = 0
KCO1 081239Z 35005KT 03/03 A3027 RMK A01 T00310027  RH  098%=      5-min Rain = 0
KCO1 081240Z 33004KT 03/03 A3027 RMK A01 T00310027  RH  098%=      5-min Rain = 0
KCO1 081241Z 35004KT 03/03 A3027 RMK A01 T00310027  RH  098%=      5-min Rain = 0
KCO1 081242Z 35004KT 03/03 A3027 RMK A01 T00310028  RH  098%=      5-min Rain = 0
KCO1 081243Z 35004KT 03/03 A3027 RMK A01 T00310027  RH  098%=      5-min Rain = 0
KCO1 081244Z 35004KT 03/03 A3027 RMK A01 T00310027  RH  098%=      5-min Rain = 0
KCO1 081245Z 34004KT 03/03 A3027 RMK A01 T00310028  RH  098%=      5-min Rain = 0
KCO1 081246Z 33004KT 03/03 A3027 RMK A01 T00310028  RH  098%=      5-min Rain = 0
KCO1 081247Z 34003KT 03/03 A3027 RMK A01 T00310028  RH  098%=      5-min Rain = 0
KCO1 081248Z 34004KT 03/03 A3027 RMK A01 T00310028  RH  098%=      5-min Rain = 0
KCO1 081249Z 34004KT 03/03 A3028 RMK A01 T00310028  RH  098%=      5-min Rain = 0
KCO1 081250Z 34004KT 03/03 A3028 RMK A01 T00310028  RH  098%=      5-min Rain = 0
KCO1 081251Z 34004KT 03/03 A3028 RMK A01 T00310028  RH  098%=      5-min Rain = 0
KCO1 081252Z 36005KT 03/03 A3028 RMK A01 T00310028  RH  098%=      5-min Rain = 0
KCO1 081253Z 34004KT 03/03 A3028 RMK A01 T00310028  RH  098%=      5-min Rain = 0
KCO1 081254Z 33003KT 03/03 A3028 RMK A01 T00310028  RH  098%=      5-min Rain = 0
KCO1 081255Z 33004KT 03/03 A3028 RMK A01 T00310028  RH  098%=      5-min Rain = 0
KCO1 081256Z 33004KT 03/03 A3028 RMK A01 T00310028  RH  098%=      5-min Rain = 0
KCO1 081257Z 33004KT 03/03 A3028 RMK A01 T00310027  RH  098%=      5-min Rain = 0
KCO1 081258Z 33004KT 03/03 A3028 RMK A01 T00310028  RH  098%=      5-min Rain = 0
KCO1 081259Z 33005KT 03/03 A3028 RMK A01 T00310028  RH  098%=      5-min Rain = 0
KCO1 081300Z 33004KT 03/03 A3028 RMK A01 T00310028  RH  098%=      5-min Rain = 0
KCO1 081301Z 33005KT 03/03 A3028 RMK A01 T00310028  RH  098%=      5-min Rain = 0
KCO1 081302Z 33005KT 03/03 A3028 RMK A01 T00310028  RH  098%=      5-min Rain = 0
KCO1 081303Z 34004KT 03/03 A3028 RMK A01 T00310028  RH  098%=      5-min Rain = 0
KCO1 081304Z 33004KT 03/03 A3028 RMK A01 T00310028  RH  098%=      5-min Rain = 0
KCO1 081305Z 34005KT 03/03 A3028 RMK A01 T00310028  RH  098%=      5-min Rain = 0
KCO1 081306Z 33005KT 03/03 A3028 RMK A01 T00310028  RH  098%=      5-min Rain = 0
KCO1 081307Z 33004KT 03/03 A3028 RMK A01 T00310028  RH  098%=      5-min Rain = 0.01
KCO1 081308Z 33004KT 03/03 A3028 RMK A01 T00310028  RH  098%=      5-min Rain = 0
KCO1 081309Z 34005KT 03/03 A3028 RMK A01 T00310028  RH  098%=      5-min Rain = 0
KCO1 081310Z 34005KT 03/03 A3028 RMK A01 T00320028  RH  098%=      5-min Rain = 0
KCO1 081311Z 34004KT 03/03 A3028 RMK A01 T00310028  RH  098%=      5-min Rain = 0
KCO1 081312Z 33005KT 03/03 A3028 RMK A01 T00310027  RH  098%=      5-min Rain = 0
KCO1 081313Z 33005KT 03/03 A3028 RMK A01 T00310028  RH  098%=      5-min Rain = 0
KCO1 081314Z 33005KT 03/03 A3028 RMK A01 T00310028  RH  098%=      5-min Rain = 0
KCO1 081315Z 33004KT 03/03 A3029 RMK A01 T00310027  RH  098%=      5-min Rain = 0
KCO1 081316Z 33005KT 03/03 A3029 RMK A01 T00310027  RH  098%=      5-min Rain = 0
KCO1 081317Z 33005KT 03/03 A3029 RMK A01 T00310027  RH  098%=      5-min Rain = 0
KCO1 081318Z 34005KT 03/03 A3029 RMK A01 T00310027  RH  098%=      5-min Rain = 0
KCO1 081319Z 33005KT 03/03 A3029 RMK A01 T00310027  RH  098%=      5-min Rain = 0
KCO1 081320Z 33005KT 03/03 A3029 RMK A01 T00300027  RH  098%=      5-min Rain = 0
KCO1 081321Z 33005KT 03/03 A3029 RMK A01 T00310027  RH  098%=      5-min Rain = 0
KCO1 081322Z 33005KT 03/03 A3029 RMK A01 T00310027  RH  098%=      5-min Rain = 0
KCO1 081323Z 33005KT 03/03 A3029 RMK A01 T00310027  RH  098%=      5-min Rain = 0
KCO1 081324Z 33004KT 03/03 A3029 RMK A01 T00300027  RH  098%=      5-min Rain = 0
KCO1 081325Z 33004KT 03/03 A3029 RMK A01 T00310028  RH  098%=      5-min Rain = 0
KCO1 081326Z 33005KT 03/03 A3029 RMK A01 T00310028  RH  098%=      5-min Rain = 0
KCO1 081327Z 33004KT 03/03 A3029 RMK A01 T00310027  RH  098%=      5-min Rain = 0
KCO1 081328Z 33004KT 03/03 A3029 RMK A01 T00310028  RH  098%=      5-min Rain = 0
KCO1 081329Z 32005KT 03/03 A3029 RMK A01 T00310028  RH  098%=      5-min Rain = 0
KCO1 081330Z 32006KT 03/03 A3029 RMK A01 T00310028  RH  098%=      5-min Rain = 0
KCO1 081331Z 32006KT 03/03 A303 RMK A01 T00310028  RH  098%=      5-min Rain = 0
KCO1 081332Z 32006KT 03/03 A303 RMK A01 T00310028  RH  098%=      5-min Rain = 0
KCO1 081333Z 32005KT 03/03 A303 RMK A01 T00310028  RH  098%=      5-min Rain = 0
KCO1 081334Z 32006KT 03/03 A303 RMK A01 T00310028  RH  098%=      5-min Rain = 0
KCO1 081335Z 31006KT 03/03 A303 RMK A01 T00310028  RH  098%=      5-min Rain = 0
KCO1 081336Z 32007KT 03/03 A303 RMK A01 T00310028  RH  098%=      5-min Rain = 0
KCO1 081337Z 32008KT 03/03 A303 RMK A01 T00310028  RH  098%=      5-min Rain = 0
KCO1 081338Z 33006KT 03/03 A303 RMK A01 T00310028  RH  098%=      5-min Rain = 0
KCO1 081339Z 32006KT 03/03 A303 RMK A01 T00310028  RH  098%=      5-min Rain = 0
KCO1 081340Z 32006KT 03/03 A303 RMK A01 T00310028  RH  098%=      5-min Rain = 0
KCO1 081341Z 32004KT 03/03 A303 RMK A01 T00310027  RH  098%=      5-min Rain = 0
KCO1 081342Z 32005KT 03/03 A303 RMK A01 T00310028  RH  098%=      5-min Rain = 0
KCO1 081343Z 33006KT 03/03 A303 RMK A01 T00310028  RH  098%=      5-min Rain = 0
KCO1 081344Z 33006KT 03/03 A303 RMK A01 T00310028  RH  098%=      5-min Rain = 0
KCO1 081345Z 33005KT 03/03 A303 RMK A01 T00310028  RH  098%=      5-min Rain = 0
KCO1 081346Z 33006KT 03/03 A303 RMK A01 T00310028  RH  098%=      5-min Rain = 0
KCO1 081347Z 33006KT 03/03 A303 RMK A01 T00310028  RH  098%=      5-min Rain = 0
KCO1 081348Z 33005KT 03/03 A303 RMK A01 T00310028  RH  098%=      5-min Rain = 0
KCO1 081349Z 33005KT 03/03 A303 RMK A01 T00300027  RH  098%=      5-min Rain = 0
KCO1 081350Z 32005KT 03/03 A303 RMK A01 T00310028  RH  098%=      5-min Rain = 0
KCO1 081351Z 32004KT 03/03 A303 RMK A01 T00300027  RH  098%=      5-min Rain = 0
KCO1 081352Z 32003KT 03/03 A303 RMK A01 T00300027  RH  098%=      5-min Rain = 0
KCO1 081353Z 31003KT 03/03 A303 RMK A01 T00310028  RH  098%=      5-min Rain = 0
KCO1 081354Z 31003KT 03/03 A303 RMK A01 T00310028  RH  098%=      5-min Rain = 0
KCO1 081355Z 31003KT 03/03 A303 RMK A01 T00310028  RH  098%=      5-min Rain = 0
KCO1 081356Z 31004KT 03/03 A303 RMK A01 T00310028  RH  098%=      5-min Rain = 0
KCO1 081357Z 31003KT 03/03 A303 RMK A01 T00310028  RH  098%=      5-min Rain = 0
KCO1 081358Z 31004KT 03/03 A303 RMK A01 T00310028  RH  098%=      5-min Rain = 0
KCO1 081359Z 32004KT 03/03 A303 RMK A01 T00310028  RH  098%=      5-min Rain = 0
KCO1 081400Z 31004KT 03/03 A303 RMK A01 T00310028  RH  098%=      5-min Rain = 0
KCO1 081401Z 31004KT 03/03 A3031 RMK A01 T00310028  RH  098%=      5-min Rain = 0
KCO1 081402Z 31003KT 03/03 A3031 RMK A01 T00310028  RH  098%=      5-min Rain = 0
KCO1 081403Z 31003KT 03/03 A3031 RMK A01 T00310028  RH  098%=      5-min Rain = 0
KCO1 081404Z 31005KT 03/03 A3031 RMK A01 T00320029  RH  098%=      5-min Rain = 0
KCO1 081405Z 31005KT 03/03 A3031 RMK A01 T00320029  RH  098%=      5-min Rain = 0
KCO1 081406Z 31005KT 03/03 A3031 RMK A01 T00310028  RH  098%=      5-min Rain = 0
KCO1 081407Z 31004KT 03/03 A3031 RMK A01 T00320029  RH  098%=      5-min Rain = 0
KCO1 081408Z 31004KT 03/03 A3031 RMK A01 T00320029  RH  098%=      5-min Rain = 0
KCO1 081409Z 31004KT 03/03 A3031 RMK A01 T00320029  RH  098%=      5-min Rain = 0
KCO1 081410Z 31005KT 03/03 A3031 RMK A01 T00320029  RH  098%=      5-min Rain = 0
KCO1 081411Z 31005KT 03/03 A3031 RMK A01 T00320029  RH  098%=      5-min Rain = 0
KCO1 081412Z 31005KT 03/03 A3031 RMK A01 T00320029  RH  098%=      5-min Rain = 0
KCO1 081413Z 31006KT 03/03 A3031 RMK A01 T00320029  RH  098%=      5-min Rain = 0
KCO1 081414Z 31006KT 03/03 A3031 RMK A01 T00320029  RH  098%=      5-min Rain = 0
KCO1 081415Z 32006KT 03/03 A3031 RMK A01 T00320029  RH  098%=      5-min Rain = 0
KCO1 081416Z 32007KT 03/03 A3031 RMK A01 T00320029  RH  098%=      5-min Rain = 0
KCO1 081417Z 32007KT 03/03 A3031 RMK A01 T00320029  RH  098%=      5-min Rain = 0
KCO1 081418Z 31007KT 03/03 A3031 RMK A01 T00320029  RH  098%=      5-min Rain = 0
KCO1 081419Z 31008KT 03/03 A3031 RMK A01 T00320029  RH  098%=      5-min Rain = 0
KCO1 081420Z 31007KT 03/03 A3031 RMK A01 T00320029  RH  098%=      5-min Rain = 0
KCO1 081421Z 32007KT 03/03 A3031 RMK A01 T00320029  RH  098%=      5-min Rain = 0
KCO1 081422Z 33006KT 03/03 A3031 RMK A01 T00320029  RH  098%=      5-min Rain = 0
KCO1 081423Z 32005KT 03/03 A3031 RMK A01 T00320029  RH  098%=      5-min Rain = 0
KCO1 081424Z 32008KT 03/03 A3032 RMK A01 T00320029  RH  098%=      5-min Rain = 0
KCO1 081425Z 31009KT 03/03 A3032 RMK A01 T00320029  RH  098%=      5-min Rain = 0
KCO1 081426Z 32008KT 03/03 A3032 RMK A01 T00310028  RH  098%=      5-min Rain = 0
KCO1 081427Z 33007KT 03/03 A3032 RMK A01 T00310028  RH  098%=      5-min Rain = 0
KCO1 081428Z 34008KT 03/03 A3032 RMK A01 T00310028  RH  098%=      5-min Rain = 0
KCO1 081429Z 34009KT 03/03 A3032 RMK A01 T00310028  RH  098%=      5-min Rain = 0
KCO1 081430Z 34007KT 03/03 A3032 RMK A01 T00310028  RH  098%=      5-min Rain = 0
KCO1 081431Z 34006KT 03/03 A3032 RMK A01 T00320029  RH  098%=      5-min Rain = 0
KCO1 081432Z 33007KT 03/03 A3032 RMK A01 T00320029  RH  098%=      5-min Rain = 0
KCO1 081433Z 33007KT 03/03 A3032 RMK A01 T00320029  RH  098%=      5-min Rain = 0
KCO1 081434Z 34006KT 03/03 A3032 RMK A01 T00320029  RH  098%=      5-min Rain = 0
KCO1 081435Z 33007KT 03/03 A3032 RMK A01 T00320030  RH  098%=      5-min Rain = 0
KCO1 081436Z 34006KT 03/03 A3032 RMK A01 T00320029  RH  098%=      5-min Rain = 0
KCO1 081437Z 33005KT 03/03 A3032 RMK A01 T00320029  RH  098%=      5-min Rain = 0
KCO1 081438Z 34007KT 03/03 A3032 RMK A01 T00320030  RH  098%=      5-min Rain = 0
KCO1 081439Z 33007KT 03/03 A3032 RMK A01 T00320030  RH  098%=      5-min Rain = 0
KCO1 081440Z 33009KT 03/03 A3032 RMK A01 T00320029  RH  098%=      5-min Rain = 0
KCO1 081441Z 34008KT 03/03 A3032 RMK A01 T00320029  RH  098%=      5-min Rain = 0
KCO1 081442Z 33006KT 03/03 A3033 RMK A01 T00320029  RH  098%=      5-min Rain = 0
KCO1 081443Z 33006KT 03/03 A3032 RMK A01 T00310029  RH  098%=      5-min Rain = 0
KCO1 081444Z 33007KT 03/03 A3033 RMK A01 T00320029  RH  098%=      5-min Rain = 0
KCO1 081445Z 33009KT 03/03 A3033 RMK A01 T00320029  RH  098%=      5-min Rain = 0
KCO1 081446Z 33008KT 03/03 A3033 RMK A01 T00320029  RH  098%=      5-min Rain = 0
KCO1 081447Z 33007KT 03/03 A3033 RMK A01 T00310028  RH  098%=      5-min Rain = 0
KCO1 081448Z 34006KT 03/03 A3033 RMK A01 T00310029  RH  098%=      5-min Rain = 0
KCO1 081449Z 33009KT 03/03 A3033 RMK A01 T00310029  RH  098%=      5-min Rain = 0
KCO1 081450Z 33007KT 03/03 A3033 RMK A01 T00310029  RH  098%=      5-min Rain = 0
KCO1 081451Z 33008KT 03/03 A3033 RMK A01 T00310028  RH  098%=      5-min Rain = 0
KCO1 081452Z 33008KT 03/03 A3033 RMK A01 T00310028  RH  098%=      5-min Rain = 0
KCO1 081453Z 33007KT 03/03 A3033 RMK A01 T00310028  RH  098%=      5-min Rain = 0
KCO1 081454Z 33009KT 03/03 A3033 RMK A01 T00310028  RH  098%=      5-min Rain = 0
KCO1 081455Z 33008KT 03/03 A3033 RMK A01 T00310028  RH  098%=      5-min Rain = 0
KCO1 081456Z 34008KT 03/03 A3033 RMK A01 T00310028  RH  098%=      5-min Rain = 0
KCO1 081457Z 33007KT 03/03 A3033 RMK A01 T00310028  RH  098%=      5-min Rain = 0
KCO1 081458Z 33007KT 03/03 A3033 RMK A01 T00320029  RH  098%=      5-min Rain = 0
KCO1 081459Z 34007KT 03/03 A3033 RMK A01 T00320029  RH  098%=      5-min Rain = 0
KCO1 081500Z 34008KT 03/03 A3033 RMK A01 T00320029  RH  098%=      5-min Rain = 0
KCO1 081501Z 33008KT 03/03 A3033 RMK A01 T00320029  RH  098%=      5-min Rain = 0
KCO1 081502Z 34008KT 03/03 A3033 RMK A01 T00310028  RH  098%=      5-min Rain = 0
KCO1 081503Z 34007KT 03/03 A3033 RMK A01 T00310028  RH  098%=      5-min Rain = 0
KCO1 081504Z 34006KT 03/03 A3033 RMK A01 T00320029  RH  098%=      5-min Rain = 0
KCO1 081505Z 34007KT 03/03 A3033 RMK A01 T00320029  RH  098%=      5-min Rain = 0
KCO1 081506Z 34007KT 03/03 A3033 RMK A01 T00320029  RH  098%=      5-min Rain = 0
KCO1 081507Z 34007KT 03/03 A3033 RMK A01 T00320029  RH  098%=      5-min Rain = 0
KCO1 081508Z 34008KT 03/03 A3033 RMK A01 T00320029  RH  098%=      5-min Rain = 0
KCO1 081509Z 34006KT 03/03 A3033 RMK A01 T00320029  RH  098%=      5-min Rain = 0
KCO1 081510Z 34008KT 03/03 A3033 RMK A01 T00320029  RH  098%=      5-min Rain = 0
KCO1 081511Z 34007KT 03/03 A3033 RMK A01 T00320029  RH  098%=      5-min Rain = 0
KCO1 081512Z 34006KT 03/03 A3033 RMK A01 T00320029  RH  098%=      5-min Rain = 0
KCO1 081513Z 34006KT 03/03 A3033 RMK A01 T00320029  RH  098%=      5-min Rain = 0
KCO1 081514Z 33007KT 03/03 A3033 RMK A01 T00320029  RH  098%=      5-min Rain = 0
KCO1 081515Z 33008KT 03/03 A3033 RMK A01 T00320029  RH  098%=      5-min Rain = 0
KCO1 081516Z 34006KT 03/03 A3033 RMK A01 T00310028  RH  098%=      5-min Rain = 0
KCO1 081517Z 34005KT 03/03 A3033 RMK A01 T00310028  RH  098%=      5-min Rain = 0
KCO1 081518Z 34005KT 03/03 A3033 RMK A01 T00320029  RH  098%=      5-min Rain = 0
KCO1 081519Z 33006KT 03/03 A3033 RMK A01 T00330031  RH  098%=      5-min Rain = 0
KCO1 081520Z 33006KT 03/03 A3033 RMK A01 T00330030  RH  098%=      5-min Rain = 0
KCO1 081521Z 33006KT 03/03 A3033 RMK A01 T00330030  RH  098%=      5-min Rain = 0
KCO1 081522Z 33006KT 03/03 A3033 RMK A01 T00320029  RH  098%=      5-min Rain = 0
KCO1 081523Z 33006KT 03/03 A3034 RMK A01 T00330029  RH  098%=      5-min Rain = 0
KCO1 081524Z 33006KT 03/03 A3034 RMK A01 T00330030  RH  098%=      5-min Rain = 0
KCO1 081525Z 33006KT 03/03 A3034 RMK A01 T00320029  RH  098%=      5-min Rain = 0
KCO1 081526Z 33005KT 03/03 A3034 RMK A01 T00320029  RH  098%=      5-min Rain = 0
KCO1 081527Z 33006KT 03/03 A3034 RMK A01 T00320029  RH  098%=      5-min Rain = 0
KCO1 081528Z 33007KT 03/03 A3034 RMK A01 T00320029  RH  098%=      5-min Rain = 0
KCO1 081529Z 33007KT 03/03 A3034 RMK A01 T00320029  RH  098%=      5-min Rain = 0
KCO1 081530Z 33006KT 03/03 A3034 RMK A01 T00320029  RH  098%=      5-min Rain = 0
KCO1 081531Z 33006KT 03/03 A3034 RMK A01 T00320029  RH  098%=      5-min Rain = 0
KCO1 081532Z 34006KT 03/03 A3034 RMK A01 T00320029  RH  098%=      5-min Rain = 0
KCO1 081533Z 33006KT 03/03 A3034 RMK A01 T00320029  RH  098%=      5-min Rain = 0
KCO1 081534Z 34007KT 03/03 A3034 RMK A01 T00320029  RH  098%=      5-min Rain = 0
KCO1 081535Z 34007KT 03/03 A3034 RMK A01 T00320029  RH  098%=      5-min Rain = 0
KCO1 081536Z 34006KT 03/03 A3034 RMK A01 T00320029  RH  098%=      5-min Rain = 0
KCO1 081537Z 33006KT 03/03 A3034 RMK A01 T00320029  RH  098%=      5-min Rain = 0
KCO1 081538Z 33006KT 03/03 A3034 RMK A01 T00330029  RH  098%=      5-min Rain = 0
KCO1 081539Z 33006KT 03/03 A3034 RMK A01 T00320029  RH  098%=      5-min Rain = 0
KCO1 081540Z 33006KT 03/03 A3034 RMK A01 T00330030  RH  098%=      5-min Rain = 0
KCO1 081541Z 33006KT 03/03 A3034 RMK A01 T00330030  RH  098%=      5-min Rain = 0
KCO1 081542Z 33006KT 03/03 A3034 RMK A01 T00330030  RH  098%=      5-min Rain = 0
KCO1 081543Z 32008KT 03/03 A3034 RMK A01 T00330030  RH  098%=      5-min Rain = 0
KCO1 081544Z 33008KT 03/03 A3034 RMK A01 T00330029  RH  098%=      5-min Rain = 0
KCO1 081545Z 33008KT 03/03 A3034 RMK A01 T00320029  RH  098%=      5-min Rain = 0
KCO1 081546Z 33007KT 03/03 A3034 RMK A01 T00320028  RH  098%=      5-min Rain = 0
KCO1 081547Z 32007KT 03/03 A3034 RMK A01 T00320029  RH  098%=      5-min Rain = 0
KCO1 081548Z 32007KT 03/03 A3034 RMK A01 T00320029  RH  098%=      5-min Rain = 0.01
KCO1 081549Z 33007KT 03/03 A3034 RMK A01 T00320029  RH  098%=      5-min Rain = 0
KCO1 081550Z 33008KT 03/03 A3034 RMK A01 T00330029  RH  098%=      5-min Rain = 0
KCO1 081551Z 34007KT 03/03 A3034 RMK A01 T00320029  RH  098%=      5-min Rain = 0
KCO1 081552Z 34006KT 03/03 A3034 RMK A01 T00320029  RH  098%=      5-min Rain = 0
KCO1 081553Z 34006KT 03/03 A3034 RMK A01 T00320029  RH  098%=      5-min Rain = 0
KCO1 081554Z 34006KT 03/03 A3034 RMK A01 T00330030  RH  098%=      5-min Rain = 0
KCO1 081555Z 33005KT 03/03 A3035 RMK A01 T00330030  RH  098%=      5-min Rain = 0
KCO1 081556Z 33006KT 03/03 A3035 RMK A01 T00340031  RH  098%=      5-min Rain = 0
KCO1 081557Z 34007KT 03/03 A3035 RMK A01 T00340031  RH  098%=      5-min Rain = 0
KCO1 081558Z 34007KT 03/03 A3035 RMK A01 T00330030  RH  098%=      5-min Rain = 0
KCO1 081559Z 34007KT 03/03 A3035 RMK A01 T00330030  RH  098%=      5-min Rain = 0
KCO1 081600Z 34006KT 03/03 A3035 RMK A01 T00330030  RH  098%=      5-min Rain = 0
KCO1 081601Z 33005KT 03/03 A3035 RMK A01 T00330030  RH  098%=      5-min Rain = 0
KCO1 081602Z 33007KT 03/03 A3035 RMK A01 T00340031  RH  098%=      5-min Rain = 0
KCO1 081603Z 33007KT 03/03 A3035 RMK A01 T00340030  RH  098%=      5-min Rain = 0
KCO1 081604Z 33006KT 03/03 A3035 RMK A01 T00330029  RH  098%=      5-min Rain = 0
KCO1 081605Z 33006KT 03/03 A3035 RMK A01 T00330029  RH  098%=      5-min Rain = 0
KCO1 081606Z 33005KT 03/03 A3035 RMK A01 T00320029  RH  098%=      5-min Rain = 0
KCO1 081607Z 33005KT 03/03 A3035 RMK A01 T00320029  RH  098%=      5-min Rain = 0
KCO1 081608Z 33006KT 03/03 A3035 RMK A01 T00320029  RH  098%=      5-min Rain = 0
KCO1 081609Z 33006KT 03/03 A3035 RMK A01 T00320029  RH  098%=      5-min Rain = 0
KCO1 081610Z 34006KT 03/03 A3035 RMK A01 T00330029  RH  098%=      5-min Rain = 0
KCO1 081611Z 34005KT 03/03 A3035 RMK A01 T00330029  RH  098%=      5-min Rain = 0
KCO1 081612Z 34006KT 03/03 A3035 RMK A01 T00340030  RH  098%=      5-min Rain = 0
KCO1 081613Z 34005KT 03/03 A3035 RMK A01 T00340030  RH  098%=      5-min Rain = 0
KCO1 081614Z 34006KT 03/03 A3035 RMK A01 T00340031  RH  098%=      5-min Rain = 0
KCO1 081615Z 34005KT 03/03 A3035 RMK A01 T00340031  RH  098%=      5-min Rain = 0
KCO1 081616Z 33006KT 03/03 A3035 RMK A01 T00340031  RH  098%=      5-min Rain = 0
KCO1 081617Z 32005KT 03/03 A3035 RMK A01 T00340031  RH  097%=      5-min Rain = 0
KCO1 081618Z 34006KT 03/03 A3035 RMK A01 T00340031  RH  098%=      5-min Rain = 0
KCO1 081619Z 33006KT 04/03 A3035 RMK A01 T00360032  RH  098%=      5-min Rain = 0
KCO1 081620Z 33006KT 04/03 A3035 RMK A01 T00360032  RH  098%=      5-min Rain = 0
KCO1 081621Z 33007KT 04/03 A3035 RMK A01 T00350032  RH  097%=      5-min Rain = 0
KCO1 081622Z 33007KT 03/03 A3035 RMK A01 T00340030  RH  097%=      5-min Rain = 0
KCO1 081623Z 33006KT 03/03 A3035 RMK A01 T00340030  RH  097%=      5-min Rain = 0
KCO1 081624Z 32006KT 03/03 A3035 RMK A01 T00340029  RH  097%=      5-min Rain = 0
KCO1 081625Z 33006KT 03/03 A3035 RMK A01 T00340029  RH  097%=      5-min Rain = 0
KCO1 081626Z 33006KT 03/03 A3035 RMK A01 T00340029  RH  097%=      5-min Rain = 0
KCO1 081627Z 33006KT 03/03 A3035 RMK A01 T00340029  RH  097%=      5-min Rain = 0
KCO1 081628Z 33005KT 03/03 A3035 RMK A01 T00340030  RH  097%=      5-min Rain = 0
KCO1 081629Z 32005KT 04/03 A3035 RMK A01 T00350031  RH  097%=      5-min Rain = 0
KCO1 081630Z 34005KT 04/03 A3035 RMK A01 T00350031  RH  097%=      5-min Rain = 0
KCO1 081631Z 34006KT 04/03 A3035 RMK A01 T00360031  RH  097%=      5-min Rain = 0
KCO1 081632Z 33006KT 04/03 A3035 RMK A01 T00360031  RH  097%=      5-min Rain = 0
KCO1 081633Z 33006KT 04/03 A3035 RMK A01 T00350030  RH  097%=      5-min Rain = 0
KCO1 081634Z 32005KT 04/03 A3035 RMK A01 T00350030  RH  097%=      5-min Rain = 0
KCO1 081635Z 32006KT 04/03 A3035 RMK A01 T00350031  RH  097%=      5-min Rain = 0
KCO1 081636Z 32005KT 04/03 A3035 RMK A01 T00360031  RH  096%=      5-min Rain = 0
KCO1 081637Z 33006KT 04/03 A3035 RMK A01 T00350030  RH  096%=      5-min Rain = 0
KCO1 081638Z 32006KT 04/03 A3035 RMK A01 T00350030  RH  096%=      5-min Rain = 0
KCO1 081639Z 32007KT 04/03 A3035 RMK A01 T00350030  RH  096%=      5-min Rain = 0
KCO1 081640Z 32006KT 04/03 A3036 RMK A01 T00350029  RH  096%=      5-min Rain = 0
KCO1 081641Z 32006KT 03/03 A3036 RMK A01 T00340029  RH  096%=      5-min Rain = 0
KCO1 081642Z 31006KT 04/03 A3036 RMK A01 T00350029  RH  096%=      5-min Rain = 0
KCO1 081643Z 31007KT 04/03 A3036 RMK A01 T00350029  RH  096%=      5-min Rain = 0
KCO1 081644Z 31007KT 03/03 A3036 RMK A01 T00340028  RH  096%=      5-min Rain = 0
KCO1 081645Z 31007KT 03/03 A3036 RMK A01 T00340028  RH  095%=      5-min Rain = 0
KCO1 081646Z 31007KT 03/03 A3036 RMK A01 T00340027  RH  095%=      5-min Rain = 0
KCO1 081647Z 32008KT 03/03 A3036 RMK A01 T00340027  RH  095%=      5-min Rain = 0
KCO1 081648Z 31007KT 04/03 A3036 RMK A01 T00350027  RH  095%=      5-min Rain = 0
KCO1 081649Z 31005KT 04/03 A3036 RMK A01 T00350027  RH  095%=      5-min Rain = 0
KCO1 081650Z 32006KT 04/03 A3036 RMK A01 T00350028  RH  095%=      5-min Rain = 0
KCO1 081651Z 32005KT 04/03 A3036 RMK A01 T00360029  RH  095%=      5-min Rain = 0
KCO1 081652Z 32006KT 04/03 A3036 RMK A01 T00370029  RH  095%=      5-min Rain = 0
KCO1 081653Z 32007KT 04/03 A3036 RMK A01 T00370029  RH  095%=      5-min Rain = 0
KCO1 081654Z 32006KT 04/03 A3036 RMK A01 T00370029  RH  094%=      5-min Rain = 0
KCO1 081655Z 31006KT 04/03 A3036 RMK A01 T00370028  RH  094%=      5-min Rain = 0
KCO1 081656Z 33004KT 04/03 A3036 RMK A01 T00370028  RH  094%=      5-min Rain = 0
KCO1 081657Z 31006KT 04/03 A3036 RMK A01 T00380029  RH  094%=      5-min Rain = 0
KCO1 081658Z 31006KT 04/03 A3036 RMK A01 T00380028  RH  094%=      5-min Rain = 0
KCO1 081659Z 33006KT 04/03 A3036 RMK A01 T00370027  RH  093%=      5-min Rain = 0
KCO1 081700Z 33006KT 04/03 A3036 RMK A01 T00370027  RH  093%=      5-min Rain = 0
KCO1 081701Z 33006KT 04/03 A3036 RMK A01 T00370027  RH  093%=      5-min Rain = 0
KCO1 081702Z 32005KT 04/03 A3036 RMK A01 T00370026  RH  093%=      5-min Rain = 0
KCO1 081703Z 31007KT 04/03 A3036 RMK A01 T00380028  RH  093%=      5-min Rain = 0
KCO1 081704Z 31006KT 04/03 A3035 RMK A01 T00380027  RH  092%=      5-min Rain = 0
KCO1 081705Z 32005KT 04/03 A3035 RMK A01 T00380026  RH  092%=      5-min Rain = 0
KCO1 081706Z 32005KT 04/03 A3035 RMK A01 T00380027  RH  092%=      5-min Rain = 0
KCO1 081707Z 31006KT 04/03 A3035 RMK A01 T00380027  RH  092%=      5-min Rain = 0
KCO1 081708Z 31007KT 04/03 A3035 RMK A01 T00390027  RH  092%=      5-min Rain = 0
KCO1 081709Z 30008KT 04/03 A3035 RMK A01 T00380026  RH  092%=      5-min Rain = 0
KCO1 081710Z 31007KT 04/02 A3035 RMK A01 T00370024  RH  091%=      5-min Rain = 0
KCO1 081711Z 30006KT 04/02 A3035 RMK A01 T00370023  RH  091%=      5-min Rain = 0
KCO1 081712Z 30008KT 04/02 A3035 RMK A01 T00360023  RH  091%=      5-min Rain = 0
KCO1 081713Z 30008KT 04/02 A3035 RMK A01 T00360023  RH  091%=      5-min Rain = 0
KCO1 081714Z 31006KT 04/02 A3035 RMK A01 T00370024  RH  091%=      5-min Rain = 0
KCO1 081715Z 31005KT 04/02 A3035 RMK A01 T00370024  RH  091%=      5-min Rain = 0
KCO1 081716Z 32005KT 04/03 A3035 RMK A01 T00370025  RH  091%=      5-min Rain = 0
KCO1 081717Z 33006KT 04/03 A3035 RMK A01 T00380025  RH  091%=      5-min Rain = 0
KCO1 081718Z 33006KT 04/03 A3035 RMK A01 T00380025  RH  091%=      5-min Rain = 0
KCO1 081719Z 33006KT 04/03 A3035 RMK A01 T00390026  RH  091%=      5-min Rain = 0
KCO1 081720Z 33005KT 04/03 A3035 RMK A01 T00390025  RH  091%=      5-min Rain = 0
KCO1 081721Z 33006KT 04/03 A3035 RMK A01 T00390026  RH  091%=      5-min Rain = 0
KCO1 081722Z 32004KT 04/03 A3035 RMK A01 T00390026  RH  091%=      5-min Rain = 0
KCO1 081723Z 32005KT 04/03 A3035 RMK A01 T00400027  RH  091%=      5-min Rain = 0
KCO1 081724Z 31005KT 04/03 A3035 RMK A01 T00410028  RH  091%=      5-min Rain = 0
KCO1 081725Z 32006KT 04/03 A3035 RMK A01 T00410027  RH  091%=      5-min Rain = 0
KCO1 081726Z 32006KT 04/02 A3035 RMK A01 T00400024  RH  089%=      5-min Rain = 0
KCO1 081727Z 32006KT 04/03 A3035 RMK A01 T00400025  RH  090%=      5-min Rain = 0
KCO1 081728Z 32005KT 04/03 A3035 RMK A01 T00410026  RH  090%=      5-min Rain = 0
KCO1 081729Z 32005KT 04/03 A3035 RMK A01 T00420026  RH  089%=      5-min Rain = 0
KCO1 081730Z 33006KT 04/03 A3035 RMK A01 T00420025  RH  089%=      5-min Rain = 0
KCO1 081731Z 34005KT 04/03 A3035 RMK A01 T00420025  RH  089%=      5-min Rain = 0
KCO1 081732Z 34005KT 04/02 A3035 RMK A01 T00410024  RH  088%=      5-min Rain = 0
KCO1 081733Z 32005KT 04/03 A3035 RMK A01 T00420025  RH  089%=      5-min Rain = 0
KCO1 081734Z 32005KT 04/02 A3035 RMK A01 T00420024  RH  088%=      5-min Rain = 0
KCO1 081735Z 33006KT 04/03 A3035 RMK A01 T00430025  RH  089%=      5-min Rain = 0
KCO1 081736Z 32006KT 04/02 A3035 RMK A01 T00420023  RH  087%=      5-min Rain = 0
KCO1 081737Z 33006KT 04/02 A3035 RMK A01 T00410021  RH  087%=      5-min Rain = 0
KCO1 081738Z 32007KT 04/02 A3035 RMK A01 T00420023  RH  087%=      5-min Rain = 0
KCO1 081739Z 32006KT 04/02 A3035 RMK A01 T00430024  RH  087%=      5-min Rain = 0
KCO1 081740Z 33007KT 04/03 A3035 RMK A01 T00440025  RH  088%=      5-min Rain = 0
KCO1 081741Z 33006KT 04/02 A3035 RMK A01 T00430023  RH  087%=      5-min Rain = 0
KCO1 081742Z 34006KT 04/02 A3035 RMK A01 T00420022  RH  086%=      5-min Rain = 0
KCO1 081743Z 32006KT 04/02 A3035 RMK A01 T00430024  RH  087%=      5-min Rain = 0
KCO1 081744Z 33005KT 04/02 A3035 RMK A01 T00440024  RH  087%=      5-min Rain = 0
KCO1 081745Z 34005KT 04/02 A3035 RMK A01 T00440023  RH  087%=      5-min Rain = 0
KCO1 081746Z 33006KT 04/02 A3035 RMK A01 T00440024  RH  087%=      5-min Rain = 0
KCO1 081747Z 33006KT 05/03 A3035 RMK A01 T00450025  RH  087%=      5-min Rain = 0
KCO1 081748Z 33006KT 05/03 A3035 RMK A01 T00470029  RH  088%=      5-min Rain = 0
KCO1 081749Z 32007KT 05/03 A3035 RMK A01 T00480030  RH  088%=      5-min Rain = 0
KCO1 081750Z 33007KT 05/03 A3035 RMK A01 T00470026  RH  086%=      5-min Rain = 0
KCO1 081751Z 33008KT 05/03 A3035 RMK A01 T00460025  RH  086%=      5-min Rain = 0
KCO1 081752Z 32006KT 05/02 A3035 RMK A01 T00460022  RH  085%=      5-min Rain = 0
KCO1 081753Z 31006KT 05/02 A3035 RMK A01 T00460022  RH  085%=      5-min Rain = 0
KCO1 081754Z 32008KT 05/02 A3035 RMK A01 T00460023  RH  085%=      5-min Rain = 0
KCO1 081755Z 32007KT 05/02 A3035 RMK A01 T00450021  RH  084%=      5-min Rain = 0
KCO1 081756Z 32006KT 05/02 A3035 RMK A01 T00450021  RH  084%=      5-min Rain = 0
KCO1 081757Z 33007KT 05/02 A3034 RMK A01 T00450023  RH  085%=      5-min Rain = 0
KCO1 081758Z 32007KT 05/02 A3034 RMK A01 T00460024  RH  086%=      5-min Rain = 0
KCO1 081759Z 31008KT 05/02 A3034 RMK A01 T00460023  RH  085%=      5-min Rain = 0
KCO1 081800Z 31007KT 05/02 A3034 RMK A01 T00450022  RH  085%=      5-min Rain = 0
KCO1 081801Z 32005KT 05/02 A3034 RMK A01 T00450022  RH  085%=      5-min Rain = 0
KCO1 081802Z 31007KT 05/03 A3034 RMK A01 T00460025  RH  086%=      5-min Rain = 0
KCO1 081803Z 32008KT 05/03 A3034 RMK A01 T00470026  RH  086%=      5-min Rain = 0
KCO1 081804Z 31008KT 05/02 A3034 RMK A01 T00460023  RH  085%=      5-min Rain = 0
KCO1 081805Z 32006KT 05/02 A3034 RMK A01 T00460022  RH  084%=      5-min Rain = 0
KCO1 081806Z 31007KT 05/03 A3034 RMK A01 T00470025  RH  086%=      5-min Rain = 0
KCO1 081807Z 29006KT 05/03 A3034 RMK A01 T00480027  RH  086%=      5-min Rain = 0
KCO1 081808Z 29006KT 05/03 A3034 RMK A01 T00500029  RH  086%=      5-min Rain = 0
KCO1 081809Z 31006KT 05/03 A3034 RMK A01 T00500028  RH  086%=      5-min Rain = 0
KCO1 081810Z 33007KT 05/03 A3034 RMK A01 T00500026  RH  085%=      5-min Rain = 0
KCO1 081811Z 33007KT 05/02 A3034 RMK A01 T00490023  RH  084%=      5-min Rain = 0
KCO1 081812Z 33008KT 05/02 A3034 RMK A01 T00480023  RH  084%=      5-min Rain = 0
KCO1 081813Z 32009KT 05/02 A3034 RMK A01 T00490024  RH  084%=      5-min Rain = 0
KCO1 081814Z 31008KT 05/02 A3034 RMK A01 T00490024  RH  084%=      5-min Rain = 0
KCO1 081815Z 31009KT 05/02 A3034 RMK A01 T00480024  RH  084%=      5-min Rain = 0
KCO1 081816Z 32008KT 05/02 A3034 RMK A01 T00480022  RH  083%=      5-min Rain = 0
KCO1 081817Z 31006KT 05/02 A3034 RMK A01 T00480023  RH  084%=      5-min Rain = 0
KCO1 081818Z 32006KT 05/03 A3033 RMK A01 T00480025  RH  085%=      5-min Rain = 0
KCO1 081819Z 32008KT 05/03 A3033 RMK A01 T00490026  RH  085%=      5-min Rain = 0
KCO1 081820Z 30008KT 05/03 A3033 RMK A01 T00490025  RH  085%=      5-min Rain = 0
KCO1 081821Z 30007KT 05/03 A3033 RMK A01 T00490026  RH  085%=      5-min Rain = 0
KCO1 081822Z 30008KT 05/03 A3033 RMK A01 T00490025  RH  085%=      5-min Rain = 0
KCO1 081823Z 29008KT 05/02 A3033 RMK A01 T00490024  RH  084%=      5-min Rain = 0
KCO1 081824Z 29007KT 05/02 A3033 RMK A01 T00480023  RH  084%=      5-min Rain = 0
KCO1 081825Z 30007KT 05/02 A3033 RMK A01 T00470023  RH  084%=      5-min Rain = 0
KCO1 081826Z 30008KT 05/02 A3033 RMK A01 T00470024  RH  085%=      5-min Rain = 0
KCO1 081827Z 31009KT 05/02 A3033 RMK A01 T00470023  RH  084%=      5-min Rain = 0
KCO1 081828Z 32009KT 05/02 A3033 RMK A01 T00470022  RH  084%=      5-min Rain = 0
KCO1 081829Z 31008KT 05/02 A3033 RMK A01 T00470022  RH  084%=      5-min Rain = 0
KCO1 081830Z 31009KT 05/02 A3033 RMK A01 T00470022  RH  084%=      5-min Rain = 0
KCO1 081831Z 31008KT 05/02 A3033 RMK A01 T00470021  RH  083%=      5-min Rain = 0
KCO1 081832Z 31007KT 05/02 A3033 RMK A01 T00470021  RH  083%=      5-min Rain = 0
KCO1 081833Z 30008KT 05/02 A3033 RMK A01 T00470022  RH  084%=      5-min Rain = 0
KCO1 081834Z 31007KT 05/02 A3033 RMK A01 T00480024  RH  084%=      5-min Rain = 0
KCO1 081835Z 32007KT 05/03 A3033 RMK A01 T00480025  RH  085%=      5-min Rain = 0
KCO1 081836Z 33007KT 05/03 A3033 RMK A01 T00480025  RH  085%=      5-min Rain = 0
KCO1 081837Z 33008KT 05/03 A3033 RMK A01 T00480025  RH  085%=      5-min Rain = 0
KCO1 081838Z 33008KT 05/02 A3033 RMK A01 T00480024  RH  085%=      5-min Rain = 0
KCO1 081839Z 32007KT 05/02 A3033 RMK A01 T00470024  RH  085%=      5-min Rain = 0
KCO1 081840Z 33009KT 05/02 A3033 RMK A01 T00470024  RH  085%=      5-min Rain = 0
KCO1 081841Z 32009KT 05/02 A3033 RMK A01 T00480024  RH  085%=      5-min Rain = 0
KCO1 081842Z 32007KT 05/02 A3033 RMK A01 T00470024  RH  085%=      5-min Rain = 0
KCO1 081843Z 32007KT 05/02 A3033 RMK A01 T00470024  RH  085%=      5-min Rain = 0
KCO1 081844Z 32007KT 05/03 A3033 RMK A01 T00480026  RH  085%=      5-min Rain = 0
KCO1 081845Z 32008KT 05/03 A3033 RMK A01 T00490027  RH  086%=      5-min Rain = 0
KCO1 081846Z 32008KT 05/02 A3033 RMK A01 T00490024  RH  084%=      5-min Rain = 0
KCO1 081847Z 31008KT 05/02 A3033 RMK A01 T00480022  RH  083%=      5-min Rain = 0
KCO1 081848Z 32008KT 05/02 A3033 RMK A01 T00480022  RH  083%=      5-min Rain = 0
KCO1 081849Z 32008KT 05/02 A3033 RMK A01 T00480021  RH  083%=      5-min Rain = 0
KCO1 081850Z 31007KT 05/02 A3033 RMK A01 T00480021  RH  083%=      5-min Rain = 0
KCO1 081851Z 31007KT 05/02 A3033 RMK A01 T00480021  RH  083%=      5-min Rain = 0
KCO1 081852Z 32006KT 05/02 A3033 RMK A01 T00480020  RH  082%=      5-min Rain = 0
KCO1 081853Z 33008KT 05/02 A3032 RMK A01 T00480022  RH  083%=      5-min Rain = 0
KCO1 081854Z 33007KT 05/02 A3033 RMK A01 T00480022  RH  084%=      5-min Rain = 0
KCO1 081855Z 32006KT 05/02 A3033 RMK A01 T00480023  RH  084%=      5-min Rain = 0
KCO1 081856Z 31006KT 05/03 A3033 RMK A01 T00490026  RH  085%=      5-min Rain = 0
KCO1 081857Z 32007KT 05/03 A3033 RMK A01 T00500026  RH  085%=      5-min Rain = 0
KCO1 081858Z 32007KT 05/02 A3033 RMK A01 T00490024  RH  084%=      5-min Rain = 0
KCO1 081859Z 33007KT 05/02 A3032 RMK A01 T00480023  RH  084%=      5-min Rain = 0
KCO1 081900Z 32006KT 05/02 A3032 RMK A01 T00480021  RH  083%=      5-min Rain = 0
KCO1 081901Z 32006KT 05/02 A3032 RMK A01 T00480022  RH  084%=      5-min Rain = 0
KCO1 081902Z 31006KT 05/02 A3032 RMK A01 T00470023  RH  084%=      5-min Rain = 0
KCO1 081903Z 31007KT 05/02 A3032 RMK A01 T00470023  RH  084%=      5-min Rain = 0
KCO1 081904Z 33008KT 05/02 A3032 RMK A01 T00480023  RH  084%=      5-min Rain = 0
KCO1 081905Z 32007KT 05/02 A3032 RMK A01 T00470023  RH  084%=      5-min Rain = 0
KCO1 081906Z 32008KT 05/02 A3032 RMK A01 T00470023  RH  084%=      5-min Rain = 0
KCO1 081907Z 31007KT 05/02 A3032 RMK A01 T00480023  RH  084%=      5-min Rain = 0
KCO1 081908Z 31005KT 05/02 A3032 RMK A01 T00470023  RH  084%=      5-min Rain = 0
KCO1 081909Z 32007KT 05/02 A3032 RMK A01 T00470024  RH  085%=      5-min Rain = 0
KCO1 081910Z 31007KT 05/02 A3032 RMK A01 T00470024  RH  085%=      5-min Rain = 0
KCO1 081911Z 32007KT 05/03 A3032 RMK A01 T00480025  RH  085%=      5-min Rain = 0
KCO1 081912Z 31008KT 05/03 A3032 RMK A01 T00480025  RH  085%=      5-min Rain = 0
KCO1 081913Z 31007KT 05/02 A3032 RMK A01 T00480023  RH  084%=      5-min Rain = 0
KCO1 081914Z 31008KT 05/02 A3032 RMK A01 T00480023  RH  084%=      5-min Rain = 0
KCO1 081915Z 31008KT 05/02 A3032 RMK A01 T00470021  RH  083%=      5-min Rain = 0
KCO1 081916Z 32008KT 05/02 A3032 RMK A01 T00470021  RH  084%=      5-min Rain = 0
KCO1 081917Z 32006KT 05/02 A3032 RMK A01 T00470023  RH  084%=      5-min Rain = 0
KCO1 081918Z 31007KT 05/03 A3032 RMK A01 T00480025  RH  085%=      5-min Rain = 0
KCO1 081919Z 31008KT 05/03 A3032 RMK A01 T00480025  RH  085%=      5-min Rain = 0
KCO1 081920Z 32008KT 05/02 A3032 RMK A01 T00480024  RH  084%=      5-min Rain = 0
KCO1 081921Z 32007KT 05/02 A3032 RMK A01 T00480022  RH  084%=      5-min Rain = 0
KCO1 081922Z 31010KT 05/02 A3031 RMK A01 T00480024  RH  084%=      5-min Rain = 0
KCO1 081923Z 31009KT 05/02 A3031 RMK A01 T00480023  RH  083%=      5-min Rain = 0
KCO1 081924Z 31008KT 05/02 A3031 RMK A01 T00480022  RH  083%=      5-min Rain = 0
KCO1 081925Z 31007KT 05/02 A3031 RMK A01 T00480022  RH  083%=      5-min Rain = 0
KCO1 081926Z 31009KT 05/02 A3031 RMK A01 T00480022  RH  084%=      5-min Rain = 0
KCO1 081927Z 31008KT 05/02 A3031 RMK A01 T00480022  RH  083%=      5-min Rain = 0
KCO1 081928Z 32008KT 05/02 A3031 RMK A01 T00480021  RH  083%=      5-min Rain = 0
KCO1 081929Z 31007KT 05/02 A3031 RMK A01 T00470020  RH  083%=      5-min Rain = 0
KCO1 081930Z 32008KT 05/02 A3031 RMK A01 T00470020  RH  083%=      5-min Rain = 0
KCO1 081931Z 32006KT 05/02 A3031 RMK A01 T00470020  RH  083%=      5-min Rain = 0
KCO1 081932Z 32007KT 05/02 A3031 RMK A01 T00470021  RH  083%=      5-min Rain = 0
KCO1 081933Z 30008KT 05/02 A3031 RMK A01 T00480022  RH  083%=      5-min Rain = 0
KCO1 081934Z 31007KT 05/02 A3031 RMK A01 T00490023  RH  083%=      5-min Rain = 0
KCO1 081935Z 30008KT 05/02 A3031 RMK A01 T00500024  RH  083%=      5-min Rain = 0
KCO1 081936Z 31008KT 05/02 A3031 RMK A01 T00510024  RH  083%=      5-min Rain = 0
KCO1 081937Z 32006KT 05/02 A3031 RMK A01 T00500021  RH  082%=      5-min Rain = 0
KCO1 081938Z 32006KT 05/02 A3031 RMK A01 T00500023  RH  083%=      5-min Rain = 0
KCO1 081939Z 31009KT 05/02 A303 RMK A01 T00510022  RH  082%=      5-min Rain = 0
KCO1 081940Z 30011KT 05/02 A3031 RMK A01 T00500021  RH  081%=      5-min Rain = 0
KCO1 081941Z 30011KT 05/02 A303 RMK A01 T00500019  RH  080%=      5-min Rain = 0
KCO1 081942Z 30010KT 05/02 A303 RMK A01 T00490017  RH  079%=      5-min Rain = 0
KCO1 081943Z 31010KT 05/02 A303 RMK A01 T00490016  RH  079%=      5-min Rain = 0
KCO1 081944Z 30009KT 05/02 A303 RMK A01 T00490017  RH  080%=      5-min Rain = 0
KCO1 081945Z 30011KT 05/02 A303 RMK A01 T00500019  RH  080%=      5-min Rain = 0
KCO1 081946Z 32009KT 05/02 A303 RMK A01 T00500019  RH  080%=      5-min Rain = 0
KCO1 081947Z 32010KT 05/02 A303 RMK A01 T00500020  RH  081%=      5-min Rain = 0
KCO1 081948Z 31008KT 05/02 A303 RMK A01 T00500020  RH  081%=      5-min Rain = 0
KCO1 081949Z 31008KT 05/02 A303 RMK A01 T00500019  RH  080%=      5-min Rain = 0
KCO1 081950Z 30008KT 05/02 A303 RMK A01 T00500019  RH  081%=      5-min Rain = 0
KCO1 081951Z 31008KT 05/02 A303 RMK A01 T00500019  RH  081%=      5-min Rain = 0
KCO1 081952Z 32009KT 05/02 A303 RMK A01 T00500020  RH  081%=      5-min Rain = 0
KCO1 081953Z 32010KT 05/02 A303 RMK A01 T00500021  RH  082%=      5-min Rain = 0
KCO1 081954Z 32008KT 05/02 A303 RMK A01 T00500020  RH  081%=      5-min Rain = 0
KCO1 081955Z 31007KT 05/02 A303 RMK A01 T00500019  RH  080%=      5-min Rain = 0
KCO1 081956Z 31010KT 05/02 A303 RMK A01 T00500019  RH  081%=      5-min Rain = 0
KCO1 081957Z 31010KT 05/02 A303 RMK A01 T00500018  RH  080%=      5-min Rain = 0
KCO1 081958Z 30008KT 05/02 A303 RMK A01 T00490017  RH  079%=      5-min Rain = 0
KCO1 081959Z 31008KT 05/02 A303 RMK A01 T00490018  RH  080%=      5-min Rain = 0
KCO1 082000Z 30007KT 05/02 A303 RMK A01 T00500017  RH  080%=      5-min Rain = 0
KCO1 082001Z 31008KT 05/02 A303 RMK A01 T00500018  RH  080%=      5-min Rain = 0
KCO1 082002Z 33008KT 05/02 A303 RMK A01 T00500020  RH  081%=      5-min Rain = 0
KCO1 082003Z 32009KT 05/02 A303 RMK A01 T00510021  RH  081%=      5-min Rain = 0
KCO1 082004Z 32010KT 05/02 A3029 RMK A01 T00510020  RH  081%=      5-min Rain = 0
KCO1 082005Z 33010KT 05/02 A3029 RMK A01 T00500020  RH  081%=      5-min Rain = 0
KCO1 082006Z 32011KT 05/02 A3029 RMK A01 T00500020  RH  081%=      5-min Rain = 0
KCO1 082007Z 32009KT 05/02 A3029 RMK A01 T00500017  RH  079%=      5-min Rain = 0
KCO1 082008Z 32009KT 05/02 A3029 RMK A01 T00500016  RH  079%=      5-min Rain = 0
KCO1 082009Z 32008KT 05/02 A3029 RMK A01 T00500017  RH  079%=      5-min Rain = 0
KCO1 082010Z 32007KT 05/02 A3029 RMK A01 T00500018  RH  080%=      5-min Rain = 0
KCO1 082011Z 32008KT 05/02 A3029 RMK A01 T00510020  RH  080%=      5-min Rain = 0
KCO1 082012Z 32009KT 05/02 A3029 RMK A01 T00510018  RH  079%=      5-min Rain = 0
KCO1 082013Z 32008KT 05/02 A3029 RMK A01 T00510019  RH  079%=      5-min Rain = 0
KCO1 082014Z 33008KT 05/02 A3029 RMK A01 T00520019  RH  079%=      5-min Rain = 0
KCO1 082015Z 32009KT 05/02 A3029 RMK A01 T00520019  RH  079%=      5-min Rain = 0
KCO1 082016Z 32009KT 05/02 A3029 RMK A01 T00520019  RH  079%=      5-min Rain = 0
KCO1 082017Z 33009KT 05/02 A3029 RMK A01 T00520017  RH  078%=      5-min Rain = 0
KCO1 082018Z 33010KT 05/02 A3029 RMK A01 T00520015  RH  077%=      5-min Rain = 0
KCO1 082019Z 33010KT 05/02 A3029 RMK A01 T00510016  RH  078%=      5-min Rain = 0
KCO1 082020Z 33011KT 05/02 A3029 RMK A01 T00520017  RH  078%=      5-min Rain = 0
KCO1 082021Z 33010KT 05/02 A3029 RMK A01 T00510017  RH  078%=      5-min Rain = 0
KCO1 082022Z 33008KT 05/02 A3029 RMK A01 T00510017  RH  079%=      5-min Rain = 0
KCO1 082023Z 33010KT 05/02 A3029 RMK A01 T00510019  RH  080%=      5-min Rain = 0
KCO1 082024Z 33010KT 05/02 A3029 RMK A01 T00510018  RH  079%=      5-min Rain = 0
KCO1 082025Z 33008KT 05/02 A3029 RMK A01 T00510016  RH  078%=      5-min Rain = 0
KCO1 082026Z 33010KT 05/02 A3029 RMK A01 T00500017  RH  079%=      5-min Rain = 0
KCO1 082027Z 33010KT 05/02 A3029 RMK A01 T00510017  RH  079%=      5-min Rain = 0
KCO1 082028Z 33009KT 05/02 A3029 RMK A01 T00510017  RH  079%=      5-min Rain = 0
KCO1 082029Z 32007KT 05/02 A3029 RMK A01 T00510017  RH  079%=      5-min Rain = 0
KCO1 082030Z 32006KT 05/02 A3029 RMK A01 T00510018  RH  079%=      5-min Rain = 0
KCO1 082031Z 33007KT 05/02 A3029 RMK A01 T00510020  RH  080%=      5-min Rain = 0
KCO1 082032Z 33007KT 05/02 A3029 RMK A01 T00520020  RH  080%=      5-min Rain = 0
KCO1 082033Z 32007KT 05/02 A3029 RMK A01 T00520021  RH  080%=      5-min Rain = 0
KCO1 082034Z 32007KT 05/02 A3029 RMK A01 T00530020  RH  080%=      5-min Rain = 0
KCO1 082035Z 33006KT 05/02 A3029 RMK A01 T00530019  RH  079%=      5-min Rain = 0
KCO1 082036Z 32007KT 05/02 A3029 RMK A01 T00530020  RH  079%=      5-min Rain = 0
KCO1 082037Z 33009KT 05/02 A3029 RMK A01 T00530021  RH  080%=      5-min Rain = 0
KCO1 082038Z 32008KT 05/02 A3029 RMK A01 T00530019  RH  079%=      5-min Rain = 0
KCO1 082039Z 32009KT 05/02 A3029 RMK A01 T00530019  RH  079%=      5-min Rain = 0
KCO1 082040Z 32008KT 05/02 A3029 RMK A01 T00520019  RH  079%=      5-min Rain = 0
KCO1 082041Z 32009KT 05/02 A3029 RMK A01 T00520020  RH  080%=      5-min Rain = 0
KCO1 082042Z 33008KT 05/02 A3029 RMK A01 T00520018  RH  079%=      5-min Rain = 0
KCO1 082043Z 33009KT 05/02 A3029 RMK A01 T00510018  RH  079%=      5-min Rain = 0
KCO1 082044Z 33009KT 05/02 A3029 RMK A01 T00520018  RH  079%=      5-min Rain = 0
KCO1 082045Z 33007KT 05/02 A3029 RMK A01 T00520018  RH  079%=      5-min Rain = 0
KCO1 082046Z 34008KT 05/02 A3029 RMK A01 T00520021  RH  080%=      5-min Rain = 0
KCO1 082047Z 33007KT 05/02 A3029 RMK A01 T00520019  RH  079%=      5-min Rain = 0
KCO1 082048Z 32006KT 05/02 A3029 RMK A01 T00530019  RH  079%=      5-min Rain = 0
KCO1 082049Z 32006KT 05/02 A3029 RMK A01 T00530018  RH  078%=      5-min Rain = 0
KCO1 082050Z 33007KT 05/02 A3029 RMK A01 T00530020  RH  079%=      5-min Rain = 0
KCO1 082051Z 33007KT 05/02 A3029 RMK A01 T00540020  RH  079%=      5-min Rain = 0
KCO1 082052Z 32007KT 05/02 A3029 RMK A01 T00540019  RH  078%=      5-min Rain = 0
KCO1 082053Z 32007KT 05/02 A3029 RMK A01 T00540017  RH  077%=      5-min Rain = 0
KCO1 082054Z 32006KT 05/02 A3029 RMK A01 T00530016  RH  077%=      5-min Rain = 0
KCO1 082055Z 33007KT 05/02 A3029 RMK A01 T00530018  RH  078%=      5-min Rain = 0
KCO1 082056Z 33007KT 05/02 A3029 RMK A01 T00540021  RH  079%=      5-min Rain = 0
KCO1 082057Z 32008KT 06/02 A3029 RMK A01 T00550020  RH  078%=      5-min Rain = 0
KCO1 082058Z 31007KT 06/02 A3029 RMK A01 T00550019  RH  078%=      5-min Rain = 0
KCO1 082059Z 32006KT 06/02 A3029 RMK A01 T00550018  RH  077%=      5-min Rain = 0
KCO1 082100Z 32007KT 06/02 A3029 RMK A01 T00550018  RH  077%=      5-min Rain = 0
KCO1 082101Z 32006KT 06/02 A3029 RMK A01 T00550018  RH  077%=      5-min Rain = 0
KCO1 082102Z 32007KT 06/02 A3029 RMK A01 T00550019  RH  078%=      5-min Rain = 0
KCO1 082103Z 32008KT 06/02 A3029 RMK A01 T00550018  RH  077%=      5-min Rain = 0
KCO1 082104Z 32007KT 05/02 A3029 RMK A01 T00540016  RH  077%=      5-min Rain = 0
KCO1 082105Z 32006KT 05/02 A3029 RMK A01 T00540019  RH  078%=      5-min Rain = 0
KCO1 082106Z 32008KT 05/02 A3029 RMK A01 T00540019  RH  078%=      5-min Rain = 0
KCO1 082107Z 33007KT 05/02 A3029 RMK A01 T00540019  RH  078%=      5-min Rain = 0
KCO1 082108Z 32006KT 05/02 A3029 RMK A01 T00540020  RH  078%=      5-min Rain = 0
KCO1 082109Z 33006KT 06/02 A3029 RMK A01 T00550021  RH  079%=      5-min Rain = 0
KCO1 082110Z 34007KT 06/02 A3029 RMK A01 T00550021  RH  079%=      5-min Rain = 0
KCO1 082111Z 33008KT 06/02 A3029 RMK A01 T00550021  RH  079%=      5-min Rain = 0
KCO1 082112Z 34010KT 06/02 A3029 RMK A01 T00550022  RH  079%=      5-min Rain = 0
KCO1 082113Z 33009KT 06/02 A3029 RMK A01 T00550020  RH  078%=      5-min Rain = 0
KCO1 082114Z 34009KT 05/02 A3029 RMK A01 T00540019  RH  078%=      5-min Rain = 0
KCO1 082115Z 32008KT 05/02 A3029 RMK A01 T00540020  RH  079%=      5-min Rain = 0
KCO1 082116Z 33007KT 05/02 A3029 RMK A01 T00540020  RH  079%=      5-min Rain = 0
KCO1 082117Z 34008KT 05/02 A3029 RMK A01 T00540021  RH  079%=      5-min Rain = 0
KCO1 082118Z 33008KT 05/02 A3029 RMK A01 T00540020  RH  079%=      5-min Rain = 0
KCO1 082119Z 33007KT 05/02 A3029 RMK A01 T00540020  RH  078%=      5-min Rain = 0
KCO1 082120Z 32006KT 05/02 A3029 RMK A01 T00540019  RH  078%=      5-min Rain = 0
KCO1 082121Z 33005KT 05/02 A3029 RMK A01 T00540020  RH  079%=      5-min Rain = 0
KCO1 082122Z 33006KT 05/02 A3029 RMK A01 T00540021  RH  079%=      5-min Rain = 0
KCO1 082123Z 33007KT 05/02 A3029 RMK A01 T00540021  RH  079%=      5-min Rain = 0
KCO1 082124Z 33005KT 05/02 A3029 RMK A01 T00540020  RH  078%=      5-min Rain = 0
KCO1 082125Z 33005KT 06/02 A3029 RMK A01 T00550022  RH  079%=      5-min Rain = 0
KCO1 082126Z 33006KT 06/02 A3029 RMK A01 T00550021  RH  079%=      5-min Rain = 0
KCO1 082127Z 33006KT 06/02 A3029 RMK A01 T00550021  RH  079%=      5-min Rain = 0
KCO1 082128Z 33008KT 06/02 A3029 RMK A01 T00550020  RH  078%=      5-min Rain = 0
KCO1 082129Z 33007KT 06/02 A3029 RMK A01 T00550019  RH  077%=      5-min Rain = 0
KCO1 082130Z 33007KT 06/02 A3029 RMK A01 T00550019  RH  077%=      5-min Rain = 0
KCO1 082131Z 33007KT 06/02 A3029 RMK A01 T00550019  RH  078%=      5-min Rain = 0
KCO1 082132Z 32007KT 06/02 A3029 RMK A01 T00550019  RH  078%=      5-min Rain = 0
KCO1 082133Z 32007KT 06/02 A3029 RMK A01 T00550019  RH  078%=      5-min Rain = 0
KCO1 082134Z 33007KT 06/02 A3029 RMK A01 T00550018  RH  077%=      5-min Rain = 0
KCO1 082135Z 33007KT 06/02 A3029 RMK A01 T00550019  RH  077%=      5-min Rain = 0
KCO1 082136Z 32006KT 06/02 A3029 RMK A01 T00550019  RH  078%=      5-min Rain = 0
KCO1 082137Z 32005KT 06/02 A3029 RMK A01 T00550020  RH  078%=      5-min Rain = 0
KCO1 082138Z 31006KT 06/02 A3029 RMK A01 T00550019  RH  078%=      5-min Rain = 0
KCO1 082139Z 32006KT 06/02 A3029 RMK A01 T00550018  RH  077%=      5-min Rain = 0
KCO1 082140Z 32006KT 06/02 A3029 RMK A01 T00550019  RH  077%=      5-min Rain = 0
KCO1 082141Z 31006KT 06/02 A3029 RMK A01 T00550017  RH  077%=      5-min Rain = 0
KCO1 082142Z 31006KT 06/02 A3029 RMK A01 T00550018  RH  077%=      5-min Rain = 0
KCO1 082143Z 31005KT 06/02 A3029 RMK A01 T00550018  RH  077%=      5-min Rain = 0
KCO1 082144Z 30004KT 06/02 A3029 RMK A01 T00550020  RH  078%=      5-min Rain = 0
KCO1 082145Z 29004KT 06/02 A3029 RMK A01 T00550022  RH  079%=      5-min Rain = 0
KCO1 082146Z 29005KT 06/02 A3029 RMK A01 T00560021  RH  078%=      5-min Rain = 0
KCO1 082147Z 30005KT 06/02 A3029 RMK A01 T00550019  RH  078%=      5-min Rain = 0
KCO1 082148Z 31004KT 06/02 A3029 RMK A01 T00550020  RH  078%=      5-min Rain = 0
KCO1 082149Z 31004KT 06/02 A3029 RMK A01 T00550021  RH  078%=      5-min Rain = 0
KCO1 082150Z 31006KT 06/02 A3029 RMK A01 T00550021  RH  079%=      5-min Rain = 0
KCO1 082151Z 30007KT 06/02 A3029 RMK A01 T00550019  RH  078%=      5-min Rain = 0
KCO1 082152Z 31006KT 06/02 A3029 RMK A01 T00560019  RH  077%=      5-min Rain = 0
KCO1 082153Z 31005KT 06/02 A3028 RMK A01 T00560019  RH  077%=      5-min Rain = 0
KCO1 082154Z 31006KT 06/02 A3028 RMK A01 T00560020  RH  078%=      5-min Rain = 0
KCO1 082155Z 31006KT 06/02 A3028 RMK A01 T00560018  RH  077%=      5-min Rain = 0
KCO1 082156Z 30006KT 06/02 A3028 RMK A01 T00560019  RH  077%=      5-min Rain = 0
KCO1 082157Z 31005KT 06/02 A3028 RMK A01 T00560019  RH  077%=      5-min Rain = 0
KCO1 082158Z 31004KT 06/02 A3028 RMK A01 T00560019  RH  077%=      5-min Rain = 0
KCO1 082159Z 31005KT 06/02 A3028 RMK A01 T00560019  RH  077%=      5-min Rain = 0
KCO1 082200Z 32005KT 06/02 A3028 RMK A01 T00560019  RH  077%=      5-min Rain = 0
KCO1 082201Z 32004KT 06/02 A3028 RMK A01 T00560019  RH  077%=      5-min Rain = 0
KCO1 082202Z 33005KT 06/02 A3028 RMK A01 T00560019  RH  077%=      5-min Rain = 0
KCO1 082203Z 32004KT 06/02 A3028 RMK A01 T00560019  RH  077%=      5-min Rain = 0
KCO1 082204Z 31004KT 06/02 A3028 RMK A01 T00560019  RH  077%=      5-min Rain = 0
KCO1 082205Z 30005KT 06/02 A3028 RMK A01 T00560021  RH  078%=      5-min Rain = 0
KCO1 082206Z 30004KT 06/02 A3028 RMK A01 T00560019  RH  077%=      5-min Rain = 0
KCO1 082207Z 30004KT 06/02 A3028 RMK A01 T00560020  RH  077%=      5-min Rain = 0
KCO1 082208Z 29006KT 06/02 A3028 RMK A01 T00560019  RH  077%=      5-min Rain = 0
KCO1 082209Z 30005KT 06/02 A3028 RMK A01 T00560019  RH  077%=      5-min Rain = 0
KCO1 082210Z 30004KT 06/02 A3028 RMK A01 T00560019  RH  077%=      5-min Rain = 0
KCO1 082211Z 30004KT 06/02 A3028 RMK A01 T00560019  RH  077%=      5-min Rain = 0
KCO1 082212Z 30004KT 06/02 A3028 RMK A01 T00560018  RH  077%=      5-min Rain = 0
KCO1 082213Z 29003KT 06/02 A3028 RMK A01 T00560019  RH  077%=      5-min Rain = 0
KCO1 082214Z 29003KT 06/02 A3028 RMK A01 T00560020  RH  078%=      5-min Rain = 0
KCO1 082215Z 31003KT 06/02 A3028 RMK A01 T00560021  RH  078%=      5-min Rain = 0
KCO1 082216Z 30003KT 06/02 A3028 RMK A01 T00560020  RH  078%=      5-min Rain = 0
KCO1 082217Z 31003KT 06/02 A3028 RMK A01 T00560019  RH  077%=      5-min Rain = 0
KCO1 082218Z 31004KT 06/02 A3028 RMK A01 T00560019  RH  077%=      5-min Rain = 0
KCO1 082219Z 31004KT 06/02 A3028 RMK A01 T00560019  RH  077%=      5-min Rain = 0
KCO1 082220Z 32005KT 06/02 A3028 RMK A01 T00560019  RH  077%=      5-min Rain = 0
KCO1 082221Z 32006KT 06/02 A3028 RMK A01 T00560019  RH  077%=      5-min Rain = 0
KCO1 082222Z 32006KT 06/02 A3028 RMK A01 T00570019  RH  077%=      5-min Rain = 0
KCO1 082223Z 33005KT 06/02 A3028 RMK A01 T00570019  RH  077%=      5-min Rain = 0
KCO1 082224Z 34005KT 06/02 A3028 RMK A01 T00570022  RH  078%=      5-min Rain = 0
KCO1 082225Z 33006KT 06/02 A3028 RMK A01 T00580023  RH  078%=      5-min Rain = 0
KCO1 082226Z 33005KT 06/02 A3028 RMK A01 T00580020  RH  077%=      5-min Rain = 0
KCO1 082227Z 33005KT 06/02 A3028 RMK A01 T00570019  RH  077%=      5-min Rain = 0
KCO1 082228Z 33005KT 06/02 A3028 RMK A01 T00570021  RH  077%=      5-min Rain = 0
KCO1 082229Z 34006KT 06/02 A3028 RMK A01 T00570021  RH  077%=      5-min Rain = 0
KCO1 082230Z 34006KT 06/02 A3028 RMK A01 T00570020  RH  077%=      5-min Rain = 0
KCO1 082231Z 34006KT 06/02 A3028 RMK A01 T00570020  RH  077%=      5-min Rain = 0
KCO1 082232Z 33006KT 06/02 A3028 RMK A01 T00570020  RH  077%=      5-min Rain = 0
KCO1 082233Z 33007KT 06/02 A3028 RMK A01 T00570020  RH  077%=      5-min Rain = 0
KCO1 082234Z 33006KT 06/02 A3028 RMK A01 T00580019  RH  076%=      5-min Rain = 0
KCO1 082235Z 33007KT 06/02 A3028 RMK A01 T00580019  RH  076%=      5-min Rain = 0
KCO1 082236Z 32007KT 06/02 A3028 RMK A01 T00570018  RH  076%=      5-min Rain = 0
KCO1 082237Z 32005KT 06/02 A3028 RMK A01 T00570018  RH  076%=      5-min Rain = 0
KCO1 082238Z 33006KT 06/02 A3029 RMK A01 T00570018  RH  076%=      5-min Rain = 0
KCO1 082239Z 33004KT 06/02 A3029 RMK A01 T00570018  RH  076%=      5-min Rain = 0
KCO1 082240Z 33005KT 06/02 A3029 RMK A01 T00570019  RH  077%=      5-min Rain = 0
KCO1 082241Z 33005KT 06/02 A3029 RMK A01 T00570020  RH  077%=      5-min Rain = 0
KCO1 082242Z 31005KT 06/02 A3029 RMK A01 T00570018  RH  076%=      5-min Rain = 0
KCO1 082243Z 32005KT 06/02 A3029 RMK A01 T00570017  RH  075%=      5-min Rain = 0
KCO1 082244Z 33006KT 06/02 A3029 RMK A01 T00570017  RH  075%=      5-min Rain = 0
KCO1 082245Z 32005KT 06/02 A3029 RMK A01 T00570016  RH  075%=      5-min Rain = 0
KCO1 082246Z 31004KT 06/02 A3029 RMK A01 T00570017  RH  075%=      5-min Rain = 0
KCO1 082247Z 32005KT 06/02 A3029 RMK A01 T00570017  RH  075%=      5-min Rain = 0
KCO1 082248Z 32004KT 06/02 A3029 RMK A01 T00570016  RH  075%=      5-min Rain = 0
KCO1 082249Z 32006KT 06/02 A3029 RMK A01 T00570018  RH  076%=      5-min Rain = 0
KCO1 082250Z 33004KT 06/02 A3029 RMK A01 T00570017  RH  075%=      5-min Rain = 0
KCO1 082251Z 32005KT 06/02 A3029 RMK A01 T00570016  RH  075%=      5-min Rain = 0
KCO1 082252Z 33006KT 06/02 A3029 RMK A01 T00580017  RH  075%=      5-min Rain = 0
KCO1 082253Z 33006KT 06/02 A3029 RMK A01 T00580018  RH  076%=      5-min Rain = 0
KCO1 082254Z 32006KT 06/02 A3029 RMK A01 T00570018  RH  076%=      5-min Rain = 0
KCO1 082255Z 31005KT 06/02 A3029 RMK A01 T00570017  RH  075%=      5-min Rain = 0
KCO1 082256Z 31003KT 06/02 A3029 RMK A01 T00570017  RH  075%=      5-min Rain = 0
KCO1 082257Z 31004KT 06/02 A3029 RMK A01 T00580018  RH  076%=      5-min Rain = 0
KCO1 082258Z 32003KT 06/02 A3029 RMK A01 T00570017  RH  075%=      5-min Rain = 0
KCO1 082259Z 32003KT 06/02 A3029 RMK A01 T00570017  RH  075%=      5-min Rain = 0
KCO1 082300Z 33004KT 06/02 A3029 RMK A01 T00570018  RH  076%=      5-min Rain = 0
KCO1 082301Z 33003KT 06/02 A3029 RMK A01 T00570018  RH  076%=      5-min Rain = 0
KCO1 082302Z 33006KT 06/02 A3029 RMK A01 T00580020  RH  077%=      5-min Rain = 0
KCO1 082303Z 33006KT 06/02 A3029 RMK A01 T00580020  RH  076%=      5-min Rain = 0
KCO1 082304Z 32006KT 06/02 A3029 RMK A01 T00580018  RH  076%=      5-min Rain = 0
KCO1 082305Z 32004KT 06/02 A3029 RMK A01 T00580018  RH  076%=      5-min Rain = 0
KCO1 082306Z 32004KT 06/02 A3029 RMK A01 T00580019  RH  076%=      5-min Rain = 0
KCO1 082307Z 32004KT 06/02 A3029 RMK A01 T00580018  RH  076%=      5-min Rain = 0
KCO1 082308Z 32003KT 06/02 A3029 RMK A01 T00580019  RH  076%=      5-min Rain = 0
KCO1 082309Z 32005KT 06/02 A3029 RMK A01 T00580019  RH  076%=      5-min Rain = 0
KCO1 082310Z 33006KT 06/02 A3029 RMK A01 T00580020  RH  076%=      5-min Rain = 0
KCO1 082311Z 34006KT 06/02 A3028 RMK A01 T00580021  RH  077%=      5-min Rain = 0
KCO1 082312Z 34006KT 06/02 A3028 RMK A01 T00580021  RH  077%=      5-min Rain = 0
KCO1 082313Z 34005KT 06/02 A3028 RMK A01 T00580021  RH  077%=      5-min Rain = 0
KCO1 082314Z 36006KT 06/02 A3028 RMK A01 T00580021  RH  077%=      5-min Rain = 0
KCO1 082315Z 36005KT 06/02 A3028 RMK A01 T00570019  RH  076%=      5-min Rain = 0
KCO1 082316Z 01004KT 06/02 A3028 RMK A01 T00570018  RH  076%=      5-min Rain = 0
KCO1 082317Z 00005KT 06/02 A3028 RMK A01 T00570019  RH  077%=      5-min Rain = 0
KCO1 082318Z 01005KT 06/02 A3028 RMK A01 T00570020  RH  077%=      5-min Rain = 0
KCO1 082319Z 01005KT 06/02 A3028 RMK A01 T00570019  RH  077%=      5-min Rain = 0
KCO1 082320Z 01006KT 06/02 A3028 RMK A01 T00560018  RH  076%=      5-min Rain = 0
KCO1 082321Z 36006KT 06/02 A3028 RMK A01 T00560018  RH  076%=      5-min Rain = 0
KCO1 082322Z 36005KT 06/02 A3028 RMK A01 T00560019  RH  077%=      5-min Rain = 0
KCO1 082323Z 35004KT 06/02 A3028 RMK A01 T00560018  RH  077%=      5-min Rain = 0
KCO1 082324Z 34004KT 06/02 A3028 RMK A01 T00560018  RH  077%=      5-min Rain = 0
KCO1 082325Z 35004KT 06/02 A3028 RMK A01 T00560019  RH  077%=      5-min Rain = 0
KCO1 082326Z 35004KT 06/02 A3029 RMK A01 T00560019  RH  077%=      5-min Rain = 0
KCO1 082327Z 32003KT 06/02 A3029 RMK A01 T00560018  RH  077%=      5-min Rain = 0
KCO1 082328Z 31003KT 06/02 A3029 RMK A01 T00560019  RH  077%=      5-min Rain = 0
KCO1 082329Z 31004KT 06/02 A3029 RMK A01 T00560020  RH  077%=      5-min Rain = 0
KCO1 082330Z 32004KT 06/02 A3029 RMK A01 T00560019  RH  077%=      5-min Rain = 0
KCO1 082331Z 32004KT 06/02 A3029 RMK A01 T00560017  RH  076%=      5-min Rain = 0
KCO1 082332Z 32004KT 06/02 A3029 RMK A01 T00560016  RH  076%=      5-min Rain = 0
KCO1 082333Z 32003KT 06/02 A3029 RMK A01 T00560016  RH  075%=      5-min Rain = 0
KCO1 082334Z 33003KT 06/02 A3029 RMK A01 T00560017  RH  076%=      5-min Rain = 0
KCO1 082335Z 33004KT 06/02 A3029 RMK A01 T00560018  RH  077%=      5-min Rain = 0
KCO1 082336Z 33004KT 06/02 A3029 RMK A01 T00550016  RH  076%=      5-min Rain = 0
KCO1 082337Z 34004KT 06/02 A3029 RMK A01 T00560017  RH  076%=      5-min Rain = 0
KCO1 082338Z 33004KT 06/02 A3029 RMK A01 T00560018  RH  077%=      5-min Rain = 0
KCO1 082339Z 34003KT 06/02 A3029 RMK A01 T00560018  RH  077%=      5-min Rain = 0
KCO1 082340Z 34003KT 06/02 A3029 RMK A01 T00560018  RH  076%=      5-min Rain = 0
KCO1 082341Z 33003KT 06/02 A3029 RMK A01 T00560018  RH  076%=      5-min Rain = 0
KCO1 082342Z 34002KT 06/02 A3029 RMK A01 T00560018  RH  077%=      5-min Rain = 0
KCO1 082343Z 33003KT 06/02 A3029 RMK A01 T00570019  RH  077%=      5-min Rain = 0
KCO1 082344Z 33003KT 06/02 A3029 RMK A01 T00570020  RH  077%=      5-min Rain = 0
KCO1 082345Z 33002KT 06/02 A3029 RMK A01 T00560021  RH  078%=      5-min Rain = 0
KCO1 082346Z 32003KT 06/02 A3029 RMK A01 T00570021  RH  078%=      5-min Rain = 0
KCO1 082347Z 32002KT 06/02 A3029 RMK A01 T00560019  RH  077%=      5-min Rain = 0
KCO1 082348Z 32003KT 06/02 A3029 RMK A01 T00560020  RH  077%=      5-min Rain = 0
KCO1 082349Z 32003KT 06/02 A3029 RMK A01 T00560020  RH  078%=      5-min Rain = 0
KCO1 082350Z 31003KT 06/02 A3029 RMK A01 T00550018  RH  077%=      5-min Rain = 0
KCO1 082351Z 30002KT 06/02 A3029 RMK A01 T00550018  RH  077%=      5-min Rain = 0
KCO1 082352Z 31003KT 06/02 A3029 RMK A01 T00550019  RH  077%=      5-min Rain = 0
KCO1 082353Z 31003KT 06/02 A3029 RMK A01 T00550018  RH  077%=      5-min Rain = 0
KCO1 082354Z 30003KT 06/02 A3029 RMK A01 T00550018  RH  077%=      5-min Rain = 0
KCO1 082355Z 31003KT 06/02 A3029 RMK A01 T00550018  RH  077%=      5-min Rain = 0
KCO1 082356Z 31003KT 06/02 A3029 RMK A01 T00550019  RH  078%=      5-min Rain = 0
KCO1 082357Z 31003KT 05/02 A3029 RMK A01 T00540019  RH  078%=      5-min Rain = 0
KCO1 082358Z 32003KT 05/02 A3029 RMK A01 T00540019  RH  078%=      5-min Rain = 0
KCO1 082359Z 32003KT 05/02 A3029 RMK A01 T00540019  RH  078%=      5-min Rain = 0
KCO1 090000Z 31002KT 05/02 A3029 RMK A01 T00540019  RH  078%=      5-min Rain = 0
KCO1 090001Z 31002KT 05/02 A3029 RMK A01 T00540019  RH  078%=      5-min Rain = 0
KCO1 090002Z 31002KT 05/02 A3029 RMK A01 T00540019  RH  078%=      5-min Rain = 0
KCO1 090003Z 31002KT 05/02 A3029 RMK A01 T00540019  RH  078%=      5-min Rain = 0
KCO1 090004Z 31002KT 05/02 A3029 RMK A01 T00530018  RH  078%=      5-min Rain = 0
KCO1 090005Z 31002KT 05/02 A3029 RMK A01 T00530019  RH  078%=      5-min Rain = 0
KCO1 090006Z 31002KT 05/02 A3029 RMK A01 T00530018  RH  078%=      5-min Rain = 0
KCO1 090007Z 32002KT 05/02 A3029 RMK A01 T00530018  RH  078%=      5-min Rain = 0
KCO1 090008Z 33002KT 05/02 A3029 RMK A01 T00530019  RH  078%=      5-min Rain = 0
KCO1 090009Z 33002KT 05/02 A3029 RMK A01 T00530019  RH  079%=      5-min Rain = 0
KCO1 090010Z 33001KT 05/02 A3029 RMK A01 T00530019  RH  079%=      5-min Rain = 0
KCO1 090011Z 33001KT 05/02 A3029 RMK A01 T00530019  RH  079%=      5-min Rain = 0
KCO1 090012Z 31001KT 05/02 A3029 RMK A01 T00530020  RH  079%=      5-min Rain = 0
KCO1 090013Z 32002KT 05/02 A3029 RMK A01 T00520021  RH  080%=      5-min Rain = 0
KCO1 090014Z 33002KT 05/02 A3029 RMK A01 T00520020  RH  080%=      5-min Rain = 0
KCO1 090015Z 33001KT 05/02 A3029 RMK A01 T00520021  RH  081%=      5-min Rain = 0
KCO1 090016Z 33001KT 05/02 A3029 RMK A01 T00520022  RH  081%=      5-min Rain = 0
KCO1 090017Z 33001KT 05/02 A3029 RMK A01 T00510022  RH  081%=      5-min Rain = 0
KCO1 090018Z 33001KT 05/02 A3029 RMK A01 T00510021  RH  081%=      5-min Rain = 0
KCO1 090019Z 32001KT 05/02 A3029 RMK A01 T00500021  RH  081%=      5-min Rain = 0
KCO1 090020Z 32001KT 05/02 A3029 RMK A01 T00500020  RH  081%=      5-min Rain = 0
KCO1 090021Z 32001KT 05/02 A3029 RMK A01 T00500020  RH  081%=      5-min Rain = 0
KCO1 090022Z 32000KT 05/02 A3029 RMK A01 T00490020  RH  082%=      5-min Rain = 0
KCO1 090023Z 00000KT 05/02 A3029 RMK A01 T00490021  RH  082%=      5-min Rain = 0
KCO1 090024Z 00000KT 05/02 A3029 RMK A01 T00490022  RH  083%=      5-min Rain = 0
KCO1 090025Z 00000KT 05/02 A3029 RMK A01 T00480022  RH  083%=      5-min Rain = 0
KCO1 090026Z 00000KT 05/02 A3029 RMK A01 T00470021  RH  083%=      5-min Rain = 0
KCO1 090027Z 00000KT 05/02 A3029 RMK A01 T00460021  RH  084%=      5-min Rain = 0
KCO1 090028Z 00000KT 05/02 A3029 RMK A01 T00460021  RH  084%=      5-min Rain = 0
KCO1 090029Z 00000KT 05/02 A3029 RMK A01 T00450021  RH  084%=      5-min Rain = 0
KCO1 090030Z 00000KT 05/02 A3029 RMK A01 T00450021  RH  084%=      5-min Rain = 0
KCO1 090031Z 00000KT 05/02 A3029 RMK A01 T00450021  RH  085%=      5-min Rain = 0
KCO1 090032Z 00000KT 05/02 A3029 RMK A01 T00450021  RH  085%=      5-min Rain = 0
KCO1 090033Z 00000KT 05/02 A3029 RMK A01 T00450021  RH  085%=      5-min Rain = 0
KCO1 090034Z 00000KT 04/02 A3029 RMK A01 T00440020  RH  085%=      5-min Rain = 0
KCO1 090035Z 00000KT 04/02 A3029 RMK A01 T00440021  RH  085%=      5-min Rain = 0
KCO1 090036Z 00000KT 04/02 A3029 RMK A01 T00430020  RH  085%=      5-min Rain = 0
KCO1 090037Z 32000KT 04/02 A3029 RMK A01 T00420020  RH  086%=      5-min Rain = 0
KCO1 090038Z 32001KT 04/02 A3029 RMK A01 T00400019  RH  086%=      5-min Rain = 0
KCO1 090039Z 32001KT 04/02 A3029 RMK A01 T00400019  RH  086%=      5-min Rain = 0
KCO1 090040Z 32001KT 04/02 A3029 RMK A01 T00400019  RH  087%=      5-min Rain = 0
KCO1 090041Z 32000KT 04/02 A3029 RMK A01 T00400019  RH  087%=      5-min Rain = 0
KCO1 090042Z 32000KT 04/02 A3029 RMK A01 T00390019  RH  086%=      5-min Rain = 0
KCO1 090043Z 06001KT 04/02 A3029 RMK A01 T00390018  RH  086%=      5-min Rain = 0
KCO1 090044Z 07002KT 04/02 A3029 RMK A01 T00380018  RH  087%=      5-min Rain = 0
KCO1 090045Z 06002KT 04/02 A3029 RMK A01 T00380019  RH  088%=      5-min Rain = 0
KCO1 090046Z 06002KT 04/02 A3029 RMK A01 T00380021  RH  089%=      5-min Rain = 0
KCO1 090047Z 06001KT 04/02 A3029 RMK A01 T00380022  RH  089%=      5-min Rain = 0
KCO1 090048Z 06001KT 04/02 A3029 RMK A01 T00380023  RH  090%=      5-min Rain = 0
KCO1 090049Z 06001KT 04/02 A3029 RMK A01 T00380023  RH  090%=      5-min Rain = 0
KCO1 090050Z 06001KT 04/02 A3029 RMK A01 T00380023  RH  090%=      5-min Rain = 0
KCO1 090051Z 06000KT 04/02 A3029 RMK A01 T00380023  RH  090%=      5-min Rain = 0
KCO1 090052Z 00000KT 04/02 A3029 RMK A01 T00380023  RH  090%=      5-min Rain = 0
KCO1 090053Z 00000KT 04/02 A3029 RMK A01 T00380022  RH  089%=      5-min Rain = 0
KCO1 090054Z 00000KT 04/02 A3029 RMK A01 T00370021  RH  089%=      5-min Rain = 0
KCO1 090055Z 00000KT 04/02 A3029 RMK A01 T00370021  RH  090%=      5-min Rain = 0
KCO1 090056Z 06001KT 04/02 A3029 RMK A01 T00370021  RH  090%=      5-min Rain = 0
KCO1 090057Z 07001KT 04/02 A3029 RMK A01 T00370021  RH  090%=      5-min Rain = 0
KCO1 090058Z 07002KT 04/02 A3029 RMK A01 T00370021  RH  090%=      5-min Rain = 0
KCO1 090059Z 07002KT 04/02 A3029 RMK A01 T00370022  RH  090%=      5-min Rain = 0
KCO1 090100Z 07002KT 04/02 A3029 RMK A01 T00370021  RH  090%=      5-min Rain = 0
KCO1 090101Z 07001KT 04/02 A303 RMK A01 T00370021  RH  089%=      5-min Rain = 0
KCO1 090102Z 07001KT 04/02 A303 RMK A01 T00380020  RH  089%=      5-min Rain = 0
KCO1 090103Z 08001KT 04/02 A303 RMK A01 T00380019  RH  088%=      5-min Rain = 0
KCO1 090104Z 07001KT 04/02 A303 RMK A01 T00370019  RH  088%=      5-min Rain = 0
KCO1 090105Z 07001KT 04/02 A303 RMK A01 T00370018  RH  087%=      5-min Rain = 0
KCO1 090106Z 08001KT 04/02 A303 RMK A01 T00370018  RH  088%=      5-min Rain = 0
KCO1 090107Z 10001KT 04/02 A303 RMK A01 T00360018  RH  088%=      5-min Rain = 0
KCO1 090108Z 11001KT 04/02 A303 RMK A01 T00360018  RH  088%=      5-min Rain = 0
KCO1 090109Z 11001KT 04/02 A303 RMK A01 T00350018  RH  089%=      5-min Rain = 0
KCO1 090110Z 11001KT 03/02 A303 RMK A01 T00340017  RH  089%=      5-min Rain = 0
KCO1 090111Z 11001KT 03/02 A303 RMK A01 T00320016  RH  089%=      5-min Rain = 0
KCO1 090112Z 11001KT 03/02 A303 RMK A01 T00320016  RH  089%=      5-min Rain = 0
KCO1 090113Z 11002KT 03/02 A303 RMK A01 T00300015  RH  090%=      5-min Rain = 0
KCO1 090114Z 11002KT 03/02 A303 RMK A01 T00300015  RH  090%=      5-min Rain = 0
KCO1 090115Z 11002KT 03/02 A303 RMK A01 T00290015  RH  090%=      5-min Rain = 0
KCO1 090116Z 11002KT 03/02 A303 RMK A01 T00280015  RH  091%=      5-min Rain = 0
KCO1 090117Z 11002KT 03/01 A303 RMK A01 T00270014  RH  091%=      5-min Rain = 0
KCO1 090118Z 11002KT 03/01 A303 RMK A01 T00270014  RH  091%=      5-min Rain = 0
KCO1 090119Z 11002KT 03/01 A303 RMK A01 T00260014  RH  091%=      5-min Rain = 0
KCO1 090120Z 11003KT 03/01 A303 RMK A01 T00260014  RH  092%=      5-min Rain = 0
KCO1 090121Z 11003KT 03/02 A303 RMK A01 T00260015  RH  092%=      5-min Rain = 0
KCO1 090122Z 11003KT 03/02 A303 RMK A01 T00260015  RH  092%=      5-min Rain = 0
KCO1 090123Z 10003KT 03/02 A303 RMK A01 T00260015  RH  092%=      5-min Rain = 0
KCO1 090124Z 10003KT 03/02 A303 RMK A01 T00260015  RH  093%=      5-min Rain = 0
KCO1 090125Z 09003KT 03/02 A303 RMK A01 T00260015  RH  093%=      5-min Rain = 0
KCO1 090126Z 09003KT 03/02 A303 RMK A01 T00260015  RH  093%=      5-min Rain = 0
KCO1 090127Z 09003KT 03/02 A303 RMK A01 T00270016  RH  093%=      5-min Rain = 0
KCO1 090128Z 09004KT 03/02 A303 RMK A01 T00270016  RH  093%=      5-min Rain = 0
KCO1 090129Z 09004KT 03/02 A303 RMK A01 T00270017  RH  093%=      5-min Rain = 0
KCO1 090130Z 10004KT 03/02 A3029 RMK A01 T00270016  RH  093%=      5-min Rain = 0
KCO1 090131Z 10004KT 03/02 A3029 RMK A01 T00270016  RH  093%=      5-min Rain = 0
KCO1 090132Z 10004KT 03/02 A3029 RMK A01 T00270016  RH  092%=      5-min Rain = 0
KCO1 090133Z 10004KT 03/02 A3029 RMK A01 T00270015  RH  092%=      5-min Rain = 0
KCO1 090134Z 10004KT 03/02 A3029 RMK A01 T00270015  RH  092%=      5-min Rain = 0
KCO1 090135Z 10004KT 03/01 A3029 RMK A01 T00260014  RH  092%=      5-min Rain = 0
KCO1 090136Z 10004KT 03/01 A3029 RMK A01 T00260013  RH  092%=      5-min Rain = 0
KCO1 090137Z 10004KT 03/01 A3029 RMK A01 T00250012  RH  092%=      5-min Rain = 0
KCO1 090138Z 10004KT 02/01 A3029 RMK A01 T00240012  RH  091%=      5-min Rain = 0
KCO1 090139Z 10004KT 02/01 A3029 RMK A01 T00230011  RH  092%=      5-min Rain = 0
KCO1 090140Z 10004KT 02/01 A3029 RMK A01 T00230011  RH  092%=      5-min Rain = 0
KCO1 090141Z 10004KT 02/01 A3029 RMK A01 T00230011  RH  092%=      5-min Rain = 0
KCO1 090142Z 10004KT 02/01 A3029 RMK A01 T00230011  RH  092%=      5-min Rain = 0
KCO1 090143Z 10004KT 02/01 A3029 RMK A01 T00230011  RH  092%=      5-min Rain = 0
KCO1 090144Z 10004KT 02/01 A303 RMK A01 T00220011  RH  092%=      5-min Rain = 0
KCO1 090145Z 10004KT 02/01 A303 RMK A01 T00220011  RH  092%=      5-min Rain = 0
KCO1 090146Z 10004KT 02/01 A303 RMK A01 T00210010  RH  092%=      5-min Rain = 0
KCO1 090147Z 10004KT 02/01 A303 RMK A01 T00210010  RH  093%=      5-min Rain = 0
KCO1 090148Z 10004KT 02/01 A303 RMK A01 T00210010  RH  093%=      5-min Rain = 0
KCO1 090149Z 10004KT 02/01 A303 RMK A01 T00210010  RH  093%=      5-min Rain = 0
KCO1 090150Z 11004KT 02/01 A303 RMK A01 T00210011  RH  093%=      5-min Rain = 0
KCO1 090151Z 12004KT 02/01 A303 RMK A01 T00210011  RH  093%=      5-min Rain = 0
KCO1 090152Z 13004KT 02/01 A303 RMK A01 T00200010  RH  093%=      5-min Rain = 0
KCO1 090153Z 13004KT 02/01 A303 RMK A01 T00200010  RH  093%=      5-min Rain = 0
KCO1 090154Z 13004KT 02/01 A303 RMK A01 T00190009  RH  093%=      5-min Rain = 0
KCO1 090155Z 13004KT 02/01 A303 RMK A01 T00190009  RH  093%=      5-min Rain = 0
KCO1 090156Z 13004KT 02/01 A303 RMK A01 T00190009  RH  093%=      5-min Rain = 0
KCO1 090157Z 13004KT 02/01 A303 RMK A01 T00180009  RH  093%=      5-min Rain = 0
KCO1 090158Z 13004KT 02/01 A303 RMK A01 T00190009  RH  094%=      5-min Rain = 0
KCO1 090159Z 12004KT 02/01 A303 RMK A01 T00190010  RH  094%=      5-min Rain = 0
KCO1 090200Z 12004KT 02/01 A303 RMK A01 T00190010  RH  094%=      5-min Rain = 0
KCO1 090201Z 11004KT 02/01 A303 RMK A01 T00190010  RH  094%=      5-min Rain = 0
KCO1 090202Z 11005KT 02/01 A303 RMK A01 T00190011  RH  094%=      5-min Rain = 0
KCO1 090203Z 11005KT 02/01 A303 RMK A01 T00190010  RH  094%=      5-min Rain = 0
KCO1 090204Z 12005KT 02/01 A303 RMK A01 T00190011  RH  094%=      5-min Rain = 0
KCO1 090205Z 12005KT 02/01 A303 RMK A01 T00190011  RH  094%=      5-min Rain = 0
KCO1 090206Z 12005KT 02/01 A303 RMK A01 T00190011  RH  094%=      5-min Rain = 0
KCO1 090207Z 12005KT 02/01 A303 RMK A01 T00190011  RH  094%=      5-min Rain = 0
KCO1 090208Z 12005KT 02/01 A303 RMK A01 T00190011  RH  094%=      5-min Rain = 0
KCO1 090209Z 12005KT 02/01 A303 RMK A01 T00190011  RH  094%=      5-min Rain = 0
KCO1 090210Z 12005KT 02/01 A303 RMK A01 T00190011  RH  094%=      5-min Rain = 0
KCO1 090211Z 12004KT 02/01 A303 RMK A01 T00190011  RH  094%=      5-min Rain = 0
KCO1 090212Z 13005KT 02/01 A303 RMK A01 T00190011  RH  094%=      5-min Rain = 0
KCO1 090213Z 13005KT 02/01 A303 RMK A01 T00190010  RH  094%=      5-min Rain = 0
KCO1 090214Z 14005KT 02/01 A303 RMK A01 T00190010  RH  094%=      5-min Rain = 0
KCO1 090215Z 14005KT 02/01 A303 RMK A01 T00190010  RH  094%=      5-min Rain = 0
KCO1 090216Z 14006KT 02/01 A303 RMK A01 T00190010  RH  094%=      5-min Rain = 0
KCO1 090217Z 14006KT 02/01 A303 RMK A01 T00180010  RH  094%=      5-min Rain = 0
KCO1 090218Z 14006KT 02/01 A303 RMK A01 T00180010  RH  094%=      5-min Rain = 0
KCO1 090219Z 14006KT 02/01 A303 RMK A01 T00180010  RH  094%=      5-min Rain = 0
KCO1 090220Z 14006KT 02/01 A303 RMK A01 T00180010  RH  094%=      5-min Rain = 0
KCO1 090221Z 14006KT 02/01 A303 RMK A01 T00180010  RH  094%=      5-min Rain = 0
KCO1 090222Z 14006KT 02/01 A303 RMK A01 T00180010  RH  094%=      5-min Rain = 0
KCO1 090223Z 14005KT 02/01 A303 RMK A01 T00190011  RH  094%=      5-min Rain = 0
KCO1 090224Z 14005KT 02/01 A303 RMK A01 T00190011  RH  094%=      5-min Rain = 0
KCO1 090225Z 14005KT 02/01 A303 RMK A01 T00190011  RH  094%=      5-min Rain = 0
KCO1 090226Z 14005KT 02/01 A303 RMK A01 T00190011  RH  094%=      5-min Rain = 0
KCO1 090227Z 14006KT 02/01 A303 RMK A01 T00190011  RH  094%=      5-min Rain = 0
KCO1 090228Z 14006KT 02/01 A303 RMK A01 T00190011  RH  094%=      5-min Rain = 0
KCO1 090229Z 14006KT 02/01 A303 RMK A01 T00190010  RH  094%=      5-min Rain = 0
KCO1 090230Z 14005KT 02/01 A303 RMK A01 T00190010  RH  094%=      5-min Rain = 0
KCO1 090231Z 14005KT 02/01 A303 RMK A01 T00180010  RH  094%=      5-min Rain = 0
KCO1 090232Z 14005KT 02/01 A303 RMK A01 T00190010  RH  094%=      5-min Rain = 0
KCO1 090233Z 14005KT 02/01 A303 RMK A01 T00180010  RH  094%=      5-min Rain = 0
KCO1 090234Z 14005KT 02/01 A303 RMK A01 T00180009  RH  094%=      5-min Rain = 0
KCO1 090235Z 14005KT 02/01 A303 RMK A01 T00180009  RH  094%=      5-min Rain = 0
KCO1 090236Z 14005KT 02/01 A303 RMK A01 T00180009  RH  094%=      5-min Rain = 0
KCO1 090237Z 14005KT 02/01 A303 RMK A01 T00170008  RH  094%=      5-min Rain = 0
KCO1 090238Z 14005KT 02/01 A303 RMK A01 T00170008  RH  094%=      5-min Rain = 0
KCO1 090239Z 14005KT 02/01 A303 RMK A01 T00170008  RH  094%=      5-min Rain = 0
KCO1 090240Z 14005KT 02/01 A303 RMK A01 T00170008  RH  094%=      5-min Rain = 0
KCO1 090241Z 14005KT 02/01 A303 RMK A01 T00160008  RH  094%=      5-min Rain = 0
KCO1 090242Z 14005KT 02/01 A303 RMK A01 T00160007  RH  094%=      5-min Rain = 0
KCO1 090243Z 15005KT 02/01 A303 RMK A01 T00160007  RH  094%=      5-min Rain = 0
KCO1 090244Z 15005KT 02/01 A303 RMK A01 T00150007  RH  094%=      5-min Rain = 0
KCO1 090245Z 15005KT 02/01 A303 RMK A01 T00150007  RH  094%=      5-min Rain = 0
KCO1 090246Z 15006KT 02/01 A303 RMK A01 T00160007  RH  094%=      5-min Rain = 0
KCO1 090247Z 15006KT 02/01 A303 RMK A01 T00150007  RH  094%=      5-min Rain = 0
KCO1 090248Z 15006KT 02/01 A303 RMK A01 T00150007  RH  094%=      5-min Rain = 0
KCO1 090249Z 15005KT 02/01 A303 RMK A01 T00150007  RH  095%=      5-min Rain = 0
KCO1 090250Z 15006KT 01/01 A303 RMK A01 T00140006  RH  095%=      5-min Rain = 0
KCO1 090251Z 15006KT 02/01 A3031 RMK A01 T00150007  RH  095%=      5-min Rain = 0
KCO1 090252Z 15006KT 01/01 A3031 RMK A01 T00140007  RH  095%=      5-min Rain = 0
KCO1 090253Z 15005KT 02/01 A3031 RMK A01 T00150007  RH  095%=      5-min Rain = 0
KCO1 090254Z 15006KT 01/01 A3031 RMK A01 T00140007  RH  095%=      5-min Rain = 0
KCO1 090255Z 15005KT 01/01 A3031 RMK A01 T00140007  RH  095%=      5-min Rain = 0
KCO1 090256Z 15006KT 01/01 A3031 RMK A01 T00140007  RH  095%=      5-min Rain = 0
KCO1 090257Z 15006KT 01/01 A3031 RMK A01 T00140007  RH  095%=      5-min Rain = 0
KCO1 090258Z 15006KT 01/01 A3031 RMK A01 T00140007  RH  095%=      5-min Rain = 0
KCO1 090259Z 15006KT 02/01 A3031 RMK A01 T00150008  RH  095%=      5-min Rain = 0
KCO1 090300Z 16006KT 01/01 A3031 RMK A01 T00140007  RH  095%=      5-min Rain = 0
KCO1 090301Z 16006KT 01/01 A3031 RMK A01 T00140007  RH  095%=      5-min Rain = 0
KCO1 090302Z 15005KT 02/01 A3031 RMK A01 T00150007  RH  095%=      5-min Rain = 0
KCO1 090303Z 15005KT 02/01 A3031 RMK A01 T00150007  RH  095%=      5-min Rain = 0
KCO1 090304Z 15005KT 02/01 A3031 RMK A01 T00150008  RH  095%=      5-min Rain = 0
KCO1 090305Z 15005KT 02/01 A3031 RMK A01 T00150008  RH  095%=      5-min Rain = 0
KCO1 090306Z 15005KT 02/01 A3031 RMK A01 T00150008  RH  095%=      5-min Rain = 0
KCO1 090307Z 16005KT 02/01 A3031 RMK A01 T00150008  RH  095%=      5-min Rain = 0
KCO1 090308Z 16006KT 02/01 A3031 RMK A01 T00150008  RH  095%=      5-min Rain = 0
KCO1 090309Z 16006KT 02/01 A3031 RMK A01 T00150008  RH  095%=      5-min Rain = 0
KCO1 090310Z 16006KT 02/01 A3031 RMK A01 T00150008  RH  095%=      5-min Rain = 0
KCO1 090311Z 16006KT 02/01 A3031 RMK A01 T00150008  RH  095%=      5-min Rain = 0
KCO1 090312Z 16006KT 02/01 A3031 RMK A01 T00150008  RH  095%=      5-min Rain = 0
KCO1 090313Z 17006KT 02/01 A3031 RMK A01 T00150007  RH  095%=      5-min Rain = 0
KCO1 090314Z 17006KT 02/01 A3031 RMK A01 T00150007  RH  095%=      5-min Rain = 0
KCO1 090315Z 16006KT 02/01 A3031 RMK A01 T00150007  RH  095%=      5-min Rain = 0
KCO1 090316Z 16006KT 02/01 A3031 RMK A01 T00150007  RH  095%=      5-min Rain = 0
KCO1 090317Z 16006KT 01/01 A3031 RMK A01 T00140007  RH  095%=      5-min Rain = 0
KCO1 090318Z 16006KT 01/01 A3031 RMK A01 T00140007  RH  095%=      5-min Rain = 0
KCO1 090319Z 16006KT 02/01 A3031 RMK A01 T00150007  RH  095%=      5-min Rain = 0
KCO1 090320Z 16006KT 02/01 A3031 RMK A01 T00150007  RH  095%=      5-min Rain = 0
KCO1 090321Z 16006KT 01/01 A3031 RMK A01 T00140007  RH  095%=      5-min Rain = 0
KCO1 090322Z 16006KT 01/01 A3031 RMK A01 T00140007  RH  095%=      5-min Rain = 0
KCO1 090323Z 16006KT 01/01 A3031 RMK A01 T00140007  RH  095%=      5-min Rain = 0
KCO1 090324Z 15006KT 02/01 A3031 RMK A01 T00150007  RH  095%=      5-min Rain = 0
KCO1 090325Z 15006KT 01/01 A3031 RMK A01 T00140007  RH  095%=      5-min Rain = 0
KCO1 090326Z 15006KT 02/01 A3031 RMK A01 T00150007  RH  095%=      5-min Rain = 0
KCO1 090327Z 15006KT 01/01 A3031 RMK A01 T00140007  RH  095%=      5-min Rain = 0
KCO1 090328Z 15006KT 01/01 A3031 RMK A01 T00140007  RH  095%=      5-min Rain = 0
KCO1 090329Z 15005KT 02/01 A3031 RMK A01 T00150007  RH  095%=      5-min Rain = 0
KCO1 090330Z 15005KT 02/01 A3031 RMK A01 T00150008  RH  095%=      5-min Rain = 0
KCO1 090331Z 15006KT 02/01 A3031 RMK A01 T00150008  RH  095%=      5-min Rain = 0
KCO1 090332Z 15006KT 02/01 A3031 RMK A01 T00150008  RH  095%=      5-min Rain = 0
KCO1 090333Z 15006KT 02/01 A3031 RMK A01 T00160008  RH  095%=      5-min Rain = 0
KCO1 090334Z 15006KT 02/01 A3031 RMK A01 T00160009  RH  095%=      5-min Rain = 0
KCO1 090335Z 15006KT 02/01 A3031 RMK A01 T00160008  RH  095%=      5-min Rain = 0
KCO1 090336Z 15006KT 02/01 A3031 RMK A01 T00160008  RH  095%=      5-min Rain = 0
KCO1 090337Z 15006KT 02/01 A3031 RMK A01 T00160008  RH  095%=      5-min Rain = 0
KCO1 090338Z 15006KT 02/01 A3031 RMK A01 T00160008  RH  095%=      5-min Rain = 0
KCO1 090339Z 15006KT 02/01 A3031 RMK A01 T00160008  RH  095%=      5-min Rain = 0
KCO1 090340Z 15006KT 02/01 A3031 RMK A01 T00160008  RH  095%=      5-min Rain = 0
KCO1 090341Z 15006KT 02/01 A3031 RMK A01 T00160009  RH  095%=      5-min Rain = 0
KCO1 090342Z 15006KT 02/01 A3031 RMK A01 T00160009  RH  095%=      5-min Rain = 0
KCO1 090343Z 15005KT 02/01 A3031 RMK A01 T00160009  RH  095%=      5-min Rain = 0
KCO1 090344Z 15006KT 02/01 A3031 RMK A01 T00160009  RH  095%=      5-min Rain = 0
KCO1 090345Z 15005KT 02/01 A3031 RMK A01 T00170009  RH  095%=      5-min Rain = 0
KCO1 090346Z 15005KT 02/01 A3031 RMK A01 T00170009  RH  095%=      5-min Rain = 0
KCO1 090347Z 15005KT 02/01 A3031 RMK A01 T00170009  RH  095%=      5-min Rain = 0
KCO1 090348Z 15005KT 02/01 A3031 RMK A01 T00170009  RH  095%=      5-min Rain = 0
KCO1 090349Z 15005KT 02/01 A3031 RMK A01 T00170009  RH  095%=      5-min Rain = 0
KCO1 090350Z 15005KT 02/01 A3031 RMK A01 T00160008  RH  094%=      5-min Rain = 0
KCO1 090351Z 14005KT 02/01 A3031 RMK A01 T00160008  RH  094%=      5-min Rain = 0
KCO1 090352Z 14005KT 02/01 A3031 RMK A01 T00160008  RH  094%=      5-min Rain = 0
KCO1 090353Z 14005KT 02/01 A3031 RMK A01 T00160008  RH  094%=      5-min Rain = 0
KCO1 090354Z 15004KT 02/01 A3031 RMK A01 T00170009  RH  094%=      5-min Rain = 0
KCO1 090355Z 15004KT 02/01 A3031 RMK A01 T00160008  RH  094%=      5-min Rain = 0
KCO1 090356Z 15004KT 02/01 A3031 RMK A01 T00160008  RH  094%=      5-min Rain = 0
KCO1 090357Z 15005KT 02/01 A3031 RMK A01 T00160007  RH  094%=      5-min Rain = 0
KCO1 090358Z 16005KT 02/01 A3031 RMK A01 T00150007  RH  094%=      5-min Rain = 0
KCO1 090359Z 16005KT 02/01 A3031 RMK A01 T00150006  RH  094%=      5-min Rain = 0
KCO1 090400Z 16005KT 01/01 A3032 RMK A01 T00140006  RH  094%=      5-min Rain = 0
KCO1 090401Z 16005KT 01/01 A3032 RMK A01 T00140006  RH  094%=      5-min Rain = 0
KCO1 090402Z 16005KT 01/01 A3032 RMK A01 T00140006  RH  094%=      5-min Rain = 0
KCO1 090403Z 16005KT 01/01 A3032 RMK A01 T00140006  RH  094%=      5-min Rain = 0
KCO1 090404Z 17005KT 01/01 A3032 RMK A01 T00140006  RH  094%=      5-min Rain = 0
KCO1 090405Z 16005KT 01/01 A3032 RMK A01 T00140006  RH  094%=      5-min Rain = 0
KCO1 090406Z 16006KT 01/01 A3032 RMK A01 T00140006  RH  094%=      5-min Rain = 0
KCO1 090407Z 16005KT 01/01 A3032 RMK A01 T00140005  RH  094%=      5-min Rain = 0
KCO1 090408Z 16005KT 01/01 A3032 RMK A01 T00140005  RH  094%=      5-min Rain = 0
KCO1 090409Z 15005KT 01/01 A3032 RMK A01 T00130005  RH  094%=      5-min Rain = 0
KCO1 090410Z 15005KT 01/01 A3032 RMK A01 T00130005  RH  094%=      5-min Rain = 0
KCO1 090411Z 15005KT 01/00 A3032 RMK A01 T00130004  RH  094%=      5-min Rain = 0
KCO1 090412Z 15004KT 01/00 A3032 RMK A01 T00130004  RH  094%=      5-min Rain = 0
KCO1 090413Z 15004KT 01/00 A3032 RMK A01 T00120004  RH  094%=      5-min Rain = 0
KCO1 090414Z 15004KT 01/00 A3032 RMK A01 T00120004  RH  094%=      5-min Rain = 0
KCO1 090415Z 15005KT 01/00 A3032 RMK A01 T00120004  RH  094%=      5-min Rain = 0
KCO1 090416Z 15005KT 01/00 A3032 RMK A01 T00120004  RH  094%=      5-min Rain = 0
KCO1 090417Z 15005KT 01/00 A3032 RMK A01 T00110003  RH  094%=      5-min Rain = 0
KCO1 090418Z 15005KT 01/00 A3032 RMK A01 T00110003  RH  094%=      5-min Rain = 0
KCO1 090419Z 15005KT 01/00 A3032 RMK A01 T00110003  RH  095%=      5-min Rain = 0
KCO1 090420Z 16005KT 01/00 A3032 RMK A01 T00100002  RH  095%=      5-min Rain = 0
KCO1 090421Z 16005KT 01/00 A3032 RMK A01 T00090002  RH  095%=      5-min Rain = 0
KCO1 090422Z 15005KT 01/00 A3032 RMK A01 T00090001  RH  095%=      5-min Rain = 0
KCO1 090423Z 15005KT 01/00 A3032 RMK A01 T00090001  RH  095%=      5-min Rain = 0
KCO1 090424Z 15005KT 01/00 A3032 RMK A01 T00080001  RH  095%=      5-min Rain = 0
KCO1 090425Z 15005KT 01/00 A3032 RMK A01 T00090001  RH  095%=      5-min Rain = 0
KCO1 090426Z 15005KT 01/00 A3032 RMK A01 T00080001  RH  095%=      5-min Rain = 0
KCO1 090427Z 15005KT 01/00 A3032 RMK A01 T00080001  RH  095%=      5-min Rain = 0
KCO1 090428Z 15005KT 01/00 A3032 RMK A01 T00080001  RH  095%=      5-min Rain = 0
KCO1 090429Z 15006KT 01/00 A3032 RMK A01 T00080001  RH  095%=      5-min Rain = 0
KCO1 090430Z 15006KT 01/00 A3032 RMK A01 T00080001  RH  095%=      5-min Rain = 0
KCO1 090431Z 15006KT 01/00 A3032 RMK A01 T00090002  RH  095%=      5-min Rain = 0
KCO1 090432Z 15005KT 01/00 A3032 RMK A01 T00090003  RH  096%=      5-min Rain = 0
KCO1 090433Z 15006KT 01/00 A3032 RMK A01 T00090003  RH  096%=      5-min Rain = 0
KCO1 090434Z 15006KT 01/00 A3032 RMK A01 T00090003  RH  096%=      5-min Rain = 0
KCO1 090435Z 15006KT 01/00 A3032 RMK A01 T00090003  RH  096%=      5-min Rain = 0
KCO1 090436Z 15006KT 01/00 A3032 RMK A01 T00100003  RH  096%=      5-min Rain = 0
KCO1 090437Z 15006KT 01/00 A3032 RMK A01 T00100003  RH  096%=      5-min Rain = 0
KCO1 090438Z 14006KT 01/00 A3032 RMK A01 T00090003  RH  096%=      5-min Rain = 0
KCO1 090439Z 14006KT 01/00 A3032 RMK A01 T00100004  RH  096%=      5-min Rain = 0
KCO1 090440Z 15006KT 01/00 A3032 RMK A01 T00100004  RH  096%=      5-min Rain = 0
KCO1 090441Z 15006KT 01/00 A3032 RMK A01 T00100004  RH  096%=      5-min Rain = 0
KCO1 090442Z 15006KT 01/00 A3032 RMK A01 T00100004  RH  096%=      5-min Rain = 0
KCO1 090443Z 15006KT 01/00 A3032 RMK A01 T00100004  RH  096%=      5-min Rain = 0
KCO1 090444Z 15006KT 01/00 A3032 RMK A01 T00100004  RH  096%=      5-min Rain = 0
KCO1 090445Z 15006KT 01/00 A3032 RMK A01 T00100004  RH  096%=      5-min Rain = 0
KCO1 090446Z 15006KT 01/00 A3032 RMK A01 T00100004  RH  096%=      5-min Rain = 0
KCO1 090447Z 15006KT 01/00 A3032 RMK A01 T00100004  RH  096%=      5-min Rain = 0
KCO1 090448Z 15007KT 01/00 A3032 RMK A01 T00100004  RH  096%=      5-min Rain = 0
KCO1 090449Z 15007KT 01/01 A3032 RMK A01 T00110005  RH  096%=      5-min Rain = 0
KCO1 090450Z 15007KT 01/01 A3032 RMK A01 T00120006  RH  096%=      5-min Rain = 0
KCO1 090451Z 15007KT 01/01 A3032 RMK A01 T00120006  RH  096%=      5-min Rain = 0
KCO1 090452Z 15007KT 01/01 A3031 RMK A01 T00120006  RH  096%=      5-min Rain = 0
KCO1 090453Z 15007KT 01/01 A3031 RMK A01 T00130007  RH  096%=      5-min Rain = 0
KCO1 090454Z 15006KT 01/01 A3031 RMK A01 T00130006  RH  096%=      5-min Rain = 0
KCO1 090455Z 15006KT 01/01 A3031 RMK A01 T00130007  RH  096%=      5-min Rain = 0
KCO1 090456Z 15006KT 01/01 A3031 RMK A01 T00130007  RH  096%=      5-min Rain = 0
KCO1 090457Z 15006KT 01/01 A3031 RMK A01 T00130006  RH  095%=      5-min Rain = 0
KCO1 090458Z 15006KT 01/01 A3031 RMK A01 T00130006  RH  095%=      5-min Rain = 0
KCO1 090459Z 15006KT 01/01 A3031 RMK A01 T00130006  RH  095%=      5-min Rain = 0
KCO1 090500Z 15006KT 01/01 A3031 RMK A01 T00130006  RH  095%=      5-min Rain = 0
KCO1 090501Z 15006KT 01/01 A3032 RMK A01 T00130006  RH  095%=      5-min Rain = 0
KCO1 090502Z 16006KT 01/01 A3032 RMK A01 T00130006  RH  095%=      5-min Rain = 0
KCO1 090503Z 16006KT 01/01 A3032 RMK A01 T00130006  RH  095%=      5-min Rain = 0
KCO1 090504Z 16006KT 01/01 A3032 RMK A01 T00130006  RH  095%=      5-min Rain = 0
KCO1 090505Z 16006KT 01/01 A3032 RMK A01 T00130006  RH  095%=      5-min Rain = 0
KCO1 090506Z 16006KT 01/01 A3032 RMK A01 T00130006  RH  095%=      5-min Rain = 0
KCO1 090507Z 16006KT 01/01 A3032 RMK A01 T00130005  RH  095%=      5-min Rain = 0
KCO1 090508Z 16006KT 01/01 A3032 RMK A01 T00120005  RH  095%=      5-min Rain = 0
KCO1 090509Z 16006KT 01/01 A3032 RMK A01 T00120005  RH  095%=      5-min Rain = 0
KCO1 090510Z 17006KT 01/00 A3032 RMK A01 T00120004  RH  095%=      5-min Rain = 0
KCO1 090511Z 17006KT 01/01 A3032 RMK A01 T00120005  RH  095%=      5-min Rain = 0
KCO1 090512Z 17006KT 01/01 A3032 RMK A01 T00120005  RH  095%=      5-min Rain = 0
KCO1 090513Z 17006KT 01/01 A3032 RMK A01 T00120005  RH  095%=      5-min Rain = 0
KCO1 090514Z 17006KT 01/00 A3032 RMK A01 T00120004  RH  095%=      5-min Rain = 0
KCO1 090515Z 17006KT 01/00 A3032 RMK A01 T00120004  RH  095%=      5-min Rain = 0
KCO1 090516Z 17006KT 01/00 A3032 RMK A01 T00120004  RH  095%=      5-min Rain = 0
KCO1 090517Z 17006KT 01/00 A3032 RMK A01 T00120004  RH  095%=      5-min Rain = 0
KCO1 090518Z 17006KT 01/00 A3032 RMK A01 T00110004  RH  095%=      5-min Rain = 0
KCO1 090519Z 17006KT 01/00 A3032 RMK A01 T00110004  RH  095%=      5-min Rain = 0
KCO1 090520Z 17006KT 01/00 A3032 RMK A01 T00110004  RH  095%=      5-min Rain = 0
KCO1 090521Z 17006KT 01/00 A3032 RMK A01 T00110004  RH  095%=      5-min Rain = 0
KCO1 090522Z 17006KT 01/00 A3032 RMK A01 T00110004  RH  095%=      5-min Rain = 0
KCO1 090523Z 17006KT 01/00 A3032 RMK A01 T00110004  RH  095%=      5-min Rain = 0
KCO1 090524Z 17006KT 01/00 A3032 RMK A01 T00110004  RH  095%=      5-min Rain = 0
KCO1 090525Z 17006KT 01/00 A3032 RMK A01 T00110004  RH  095%=      5-min Rain = 0
KCO1 090526Z 17005KT 01/00 A3032 RMK A01 T00110004  RH  095%=      5-min Rain = 0
KCO1 090527Z 17005KT 01/00 A3032 RMK A01 T00110004  RH  095%=      5-min Rain = 0
KCO1 090528Z 16005KT 01/00 A3032 RMK A01 T00110004  RH  095%=      5-min Rain = 0
KCO1 090529Z 16006KT 01/00 A3032 RMK A01 T00110004  RH  095%=      5-min Rain = 0
KCO1 090530Z 16006KT 01/00 A3032 RMK A01 T00110004  RH  095%=      5-min Rain = 0
KCO1 090531Z 16006KT 01/00 A3032 RMK A01 T00110004  RH  095%=      5-min Rain = 0
KCO1 090532Z 16006KT 01/00 A3032 RMK A01 T00100003  RH  095%=      5-min Rain = 0
KCO1 090533Z 16006KT 01/00 A3032 RMK A01 T00100004  RH  095%=      5-min Rain = 0
KCO1 090534Z 16005KT 01/00 A3032 RMK A01 T00100004  RH  095%=      5-min Rain = 0
KCO1 090535Z 15005KT 01/00 A3032 RMK A01 T00100003  RH  095%=      5-min Rain = 0
KCO1 090536Z 16005KT 01/00 A3032 RMK A01 T00100003  RH  095%=      5-min Rain = 0
KCO1 090537Z 16005KT 01/00 A3032 RMK A01 T00100003  RH  095%=      5-min Rain = 0
KCO1 090538Z 16005KT 01/00 A3032 RMK A01 T00110004  RH  095%=      5-min Rain = 0
KCO1 090539Z 16005KT 01/00 A3032 RMK A01 T00100004  RH  095%=      5-min Rain = 0
KCO1 090540Z 16005KT 01/00 A3032 RMK A01 T00110004  RH  095%=      5-min Rain = 0
KCO1 090541Z 17006KT 01/00 A3032 RMK A01 T00100004  RH  095%=      5-min Rain = 0
KCO1 090542Z 17006KT 01/00 A3032 RMK A01 T00100004  RH  095%=      5-min Rain = 0
KCO1 090543Z 17006KT 01/00 A3032 RMK A01 T00110004  RH  095%=      5-min Rain = 0
KCO1 090544Z 17005KT 01/00 A3032 RMK A01 T00110004  RH  095%=      5-min Rain = 0
KCO1 090545Z 17006KT 01/00 A3032 RMK A01 T00110004  RH  095%=      5-min Rain = 0
KCO1 090546Z 17006KT 01/00 A3032 RMK A01 T00110004  RH  095%=      5-min Rain = 0
KCO1 090547Z 17006KT 01/00 A3032 RMK A01 T00110004  RH  095%=      5-min Rain = 0
KCO1 090548Z 17006KT 01/00 A3032 RMK A01 T00110004  RH  095%=      5-min Rain = 0
KCO1 090549Z 17006KT 01/00 A3032 RMK A01 T00110004  RH  095%=      5-min Rain = 0
KCO1 090550Z 17006KT 01/00 A3032 RMK A01 T00110004  RH  095%=      5-min Rain = 0
KCO1 090551Z 16006KT 01/00 A3032 RMK A01 T00110004  RH  095%=      5-min Rain = 0
KCO1 090552Z 16006KT 01/00 A3032 RMK A01 T00110004  RH  095%=      5-min Rain = 0
KCO1 090553Z 16006KT 01/00 A3032 RMK A01 T00100003  RH  095%=      5-min Rain = 0
KCO1 090554Z 16006KT 01/00 A3032 RMK A01 T00100003  RH  095%=      5-min Rain = 0
KCO1 090555Z 16006KT 01/00 A3032 RMK A01 T00100003  RH  095%=      5-min Rain = 0
KCO1 090556Z 15006KT 01/00 A3032 RMK A01 T00090002  RH  095%=      5-min Rain = 0
KCO1 090557Z 15006KT 01/00 A3032 RMK A01 T00100002  RH  095%=      5-min Rain = 0
KCO1 090558Z 15006KT 01/00 A3032 RMK A01 T00100002  RH  095%=      5-min Rain = 0
KCO1 090559Z 15005KT 01/00 A3032 RMK A01 T00100003  RH  095%=      5-min Rain = 0

Page generated in 0.0929 seconds.